GFSNW_850_rhum_003.txt.gz
RH
100 100 98 92 91 100 100 100 92 98 97 98 93 96 94 81 80 87 54 32 32 32 33 43 46 39 34 28 37 94 78 93 99 93 47 47 59 60 41 43 50 37 36 33
100 100 96 90 94 100 98 94 75 100 98 98 96 81 92 86 84 70 50 38 33 29 35 44 43 39 28 37 39 70 57 78 98 94 62 52 61 44 40 38 35 39 37 33
100 100 97 88 95 100 100 80 96 100 100 94 89 94 94 95 76 69 44 39 38 42 41 35 45 46 33 41 36 56 50 54 47 50 45 53 65 55 40 38 44 37 35 30
100 100 97 86 97 100 100 82 83 76 96 95 92 92 88 95 90 68 46 61 48 49 45 43 55 42 43 40 47 48 59 54 40 34 34 41 44 49 51 51 44 42 32 32
100 100 94 87 96 100 100 80 60 82 82 75 83 93 92 95 85 68 76 89 48 47 43 36 46 40 42 60 52 56 55 59 42 45 41 36 41 40 43 44 42 39 32 32
98 100 100 89 96 100 98 97 85 75 54 61 76 83 86 86 81 84 60 74 68 50 42 35 37 35 42 46 50 64 68 66 46 50 43 44 51 38 38 39 36 35 41 32
100 100 100 91 95 99 99 98 88 71 57 40 49 59 88 90 87 84 77 84 86 58 48 45 45 45 54 49 51 47 63 59 47 59 44 66 36 34 30 34 33 31 32 27
98 100 100 96 94 95 100 100 82 74 61 43 43 70 88 91 92 90 82 84 72 63 49 53 74 81 83 67 61 57 53 57 65 70 71 53 37 36 36 37 37 28 28 27
100 100 100 100 96 96 100 99 100 92 66 42 50 65 92 93 87 86 79 75 64 53 54 65 92 100 96 91 85 77 65 63 74 72 58 62 36 39 33 30 39 29 29 30
98 100 100 100 100 97 99 100 100 98 74 56 58 57 80 98 77 72 65 64 62 71 65 72 74 74 64 92 96 96 96 91 95 95 87 51 35 38 39 40 44 38 33 35
97 98 99 100 99 99 100 98 100 99 79 73 64 66 77 100 91 59 67 67 72 89 80 68 64 54 50 55 61 78 83 88 93 96 98 83 39 46 44 50 47 41 40 42
94 97 100 100 98 100 100 100 100 98 97 94 78 71 66 85 95 66 64 71 65 84 90 62 57 60 42 41 58 43 64 45 45 47 54 48 46 51 53 50 47 47 48 50
96 98 99 100 100 100 99 99 100 100 98 93 90 91 80 75 88 88 75 77 71 78 71 68 63 55 45 47 42 42 42 43 41 42 48 47 49 56 54 49 49 52 53 52
96 98 100 100 100 100 99 99 99 97 89 79 85 86 84 78 76 78 92 82 76 82 84 86 70 62 58 56 47 42 43 45 47 51 55 55 54 53 55 57 58 55 51 54
97 98 100 100 100 100 100 100 100 94 96 84 80 93 86 77 74 59 62 65 64 65 75 80 76 63 64 59 52 49 48 41 47 45 42 40 47 54 59 60 56 49 46 51
97 99 100 100 100 100 100 100 98 98 94 97 87 97 95 81 78 83 84 76 70 73 67 73 72 76 62 71 60 41 42 44 44 37 45 44 51 59 60 60 56 54 52 50
98 99 100 100 99 100 99 97 99 93 96 97 99 87 98 86 85 83 87 81 78 80 80 75 69 67 66 60 58 43 45 50 52 52 53 56 59 62 63 58 55 55 51 41
99 100 100 100 100 100 100 91 90 100 97 91 100 100 96 91 91 88 90 87 86 92 83 81 68 72 65 72 52 49 54 56 57 58 55 57 61 68 71 59 57 50 39 35
99 100 100 100 100 100 98 92 98 100 96 98 98 100 100 97 99 94 89 94 85 94 78 74 76 70 89 66 55 55 59 57 62 66 62 66 68 69 63 56 50 38 37 38
98 100 100 100 99 95 92 99 99 100 94 82 84 83 99 94 94 96 86 93 93 100 90 92 87 81 64 65 60 58 65 65 60 66 86 74 68 62 58 48 39 40 35 31
100 100 99 100 94 77 80 100 96 94 100 95 86 80 96 93 93 93 91 98 99 100 89 88 86 80 71 70 63 65 67 58 59 53 51 59 56 56 45 35 34 29 32 37
98 97 98 95 74 82 96 98 97 98 95 95 87 90 80 88 72 88 86 98 94 99 79 90 88 66 70 76 77 78 70 67 64 57 60 60 53 36 31 29 32 37 41 46
100 98 100 88 99 100 97 97 94 94 100 100 97 98 82 76 72 91 85 99 90 78 90 86 74 78 86 78 79 78 75 68 63 60 54 40 31 29 28 34 42 48 50 52
100 100 100 100 100 90 89 79 94 88 99 100 93 90 86 80 94 79 98 80 78 90 91 79 58 71 80 84 85 78 72 65 58 47 33 29 28 35 42 48 50 52 57 60
100 100 100 99 94 100 97 94 96 100 100 89 91 91 80 90 94 73 88 95 90 76 73 69 76 75 81 89 82 71 66 61 44 34 33 37 42 47 48 50 54 60 61 61
100 100 100 95 98 99 99 99 98 98 91 70 70 98 98 95 89 90 88 83 83 80 92 79 77 76 83 88 76 64 51 42 36 38 41 42 41 43 47 55 61 63 63 62
100 100 90 94 94 94 92 98 98 93 79 97 96 96 96 82 89 83 72 82 86 91 84 79 71 68 83 86 67 47 39 41 43 40 39 44 48 50 56 60 64 65 65 64

GFSNW_850_rhum_009.txt.gz
RH
100 100 99 99 100 100 100 98 98 100 100 98 97 97 76 67 77 75 84 92 81 79 67 76 68 59 44 55 51 71 89 99 99 84 75 65 71 81 60 72 84 97 58 49
99 99 98 99 92 100 100 98 99 100 100 98 98 83 81 72 79 82 89 92 68 60 59 83 59 54 46 54 65 89 93 100 97 100 96 90 80 76 74 62 94 93 62 52
99 99 95 86 98 98 99 91 98 100 100 95 89 88 87 94 89 89 85 84 72 65 57 53 54 46 47 48 54 74 92 100 100 99 87 79 91 74 75 93 97 56 56 50
99 98 96 92 100 100 96 90 93 86 97 97 92 83 87 96 97 91 86 86 81 68 55 46 53 53 47 58 71 85 87 100 100 91 80 71 76 83 92 100 66 45 46 45
96 100 97 97 100 98 97 96 91 85 88 82 95 92 95 92 94 92 87 88 62 59 73 48 49 49 51 53 74 81 86 99 95 80 80 75 82 84 71 58 49 50 52 46
96 99 100 100 98 100 100 88 79 79 82 83 93 88 85 83 82 86 81 79 86 75 65 58 40 48 38 41 61 68 83 90 83 71 61 70 72 62 62 57 50 50 58 43
96 96 98 99 98 100 100 84 88 84 92 81 82 78 81 86 86 84 84 90 87 70 60 61 52 56 58 55 65 63 80 78 74 77 60 73 45 37 49 55 50 49 43 39
98 94 96 100 100 99 100 90 81 85 95 78 81 71 64 80 82 93 90 84 81 69 71 83 89 92 80 75 73 73 65 76 82 85 84 59 44 41 42 48 50 42 46 51
98 90 96 98 98 100 100 100 98 88 92 89 80 78 80 89 89 96 90 93 91 85 84 85 100 98 98 97 83 80 71 77 84 95 82 75 45 41 37 37 57 46 41 54
99 91 94 99 99 100 99 99 100 96 94 78 78 80 86 83 96 98 97 95 89 84 93 97 96 93 83 94 94 96 94 93 89 89 94 76 48 40 38 49 51 45 44 50
99 96 92 99 100 100 100 98 100 100 94 84 80 68 76 95 91 96 94 94 96 98 97 96 89 89 92 95 82 88 81 96 97 90 94 88 45 42 37 49 44 53 55 54
100 98 97 97 98 100 99 100 100 100 97 92 92 83 80 78 77 96 94 99 87 84 91 90 84 77 80 88 96 75 91 78 82 80 74 56 50 50 49 43 48 56 52 55
100 97 96 95 95 100 100 99 99 100 100 96 95 88 84 86 84 92 99 93 95 87 70 78 79 75 69 84 87 82 69 67 67 68 57 56 53 49 50 45 46 50 50 52
100 93 92 92 97 99 100 98 98 100 96 99 96 95 93 84 84 93 97 100 96 91 84 87 88 89 72 77 61 76 68 72 67 68 62 57 55 49 52 51 50 52 52 50
96 88 91 91 97 100 100 100 98 100 98 98 96 93 94 90 89 96 100 100 100 98 93 92 89 85 79 77 68 64 57 61 68 69 56 50 53 50 53 52 53 52 51 54
89 88 96 96 93 100 100 99 98 99 100 100 100 97 96 95 95 100 100 100 99 89 89 93 88 85 84 87 77 54 44 40 40 47 44 45 48 56 54 52 53 53 51 51
84 90 89 96 88 100 100 92 88 75 100 99 99 97 93 97 97 100 90 90 88 88 85 89 86 83 81 87 90 58 49 45 44 42 47 66 58 61 56 55 57 54 52 48
90 84 82 90 97 99 99 94 93 92 99 99 100 100 98 95 98 97 97 93 87 84 89 83 88 81 82 90 73 55 53 53 54 51 46 49 57 61 59 56 54 50 43 39
74 84 98 100 99 100 98 98 99 100 97 99 99 100 100 96 96 91 91 95 99 90 95 92 88 90 93 74 70 58 56 51 60 53 54 61 61 62 61 57 50 40 43 42
95 100 98 98 99 99 97 100 100 99 100 93 97 93 98 95 93 97 91 97 98 100 94 88 96 96 73 64 61 50 52 50 54 65 80 70 68 63 60 51 43 39 38 36
99 100 100 99 100 99 98 100 100 100 100 99 90 92 97 90 92 94 93 100 100 94 94 92 97 98 83 63 61 56 53 52 54 48 53 58 57 60 55 48 43 38 32 29
99 99 99 100 100 99 100 99 100 100 97 99 97 94 82 85 76 92 92 95 97 94 90 95 96 86 71 74 70 62 58 57 57 56 58 63 63 57 48 43 38 32 32 35
99 99 99 100 100 99 99 98 99 99 100 98 92 97 74 78 76 94 92 95 97 86 87 90 88 82 70 75 72 70 67 65 60 66 65 66 58 50 42 34 33 35 37 42
99 100 99 99 99 96 92 94 92 81 91 99 81 92 90 80 91 91 89 96 88 94 96 90 88 79 73 79 76 75 75 67 68 71 68 58 49 39 34 32 36 35 40 51
99 99 99 98 99 99 99 93 97 97 98 79 80 84 78 98 91 90 90 96 98 92 87 87 79 76 80 81 78 74 71 69 67 62 53 41 35 36 44 46 46 43 48 52
99 99 99 99 97 99 98 99 99 99 88 66 62 97 92 93 93 96 94 93 93 80 91 78 76 83 81 77 72 68 65 62 56 45 37 37 38 38 44 54 54 55 54 52
99 99 100 100 96 94 92 94 96 96 77 90 94 83 78 94 100 98 92 88 84 98 83 74 80 84 76 68 65 62 60 49 40 40 40 40 40 41 46 50 60 57 58 56

GFSNW_850_rhum_012.txt.gz
RH
92 98 100 98 97 99 95 100 100 100 98 98 96 100 80 66 72 77 78 78 94 87 77 94 86 82 56 60 56 80 67 98 96 81 63 73 63 67 62 74 69 71 98 75
80 95 100 99 97 90 99 99 98 100 97 98 97 85 74 72 77 77 83 91 86 75 74 79 74 63 45 53 57 76 93 100 96 91 90 72 95 67 69 77 66 81 98 81
82 92 98 98 94 100 100 90 99 98 100 97 93 87 84 85 81 72 83 86 83 83 84 63 60 63 48 49 57 79 90 100 98 85 98 80 97 78 65 75 84 72 78 71
92 97 96 96 97 100 91 94 94 88 98 98 85 79 80 84 89 88 89 94 92 83 78 64 72 54 49 59 73 87 94 100 100 95 86 95 92 78 86 96 71 77 59 70
96 96 95 98 99 98 94 96 96 79 81 84 91 85 91 85 88 90 93 96 79 83 90 59 52 50 56 73 81 88 94 99 100 96 92 93 79 78 70 78 84 93 88 89
97 94 93 100 99 99 98 92 88 70 84 81 92 94 84 82 81 84 81 85 84 93 79 62 59 54 48 58 79 87 97 100 100 100 84 92 96 82 84 95 89 89 98 62
93 95 93 98 98 100 98 100 80 82 95 86 85 87 87 86 82 81 84 88 91 71 70 68 62 61 65 54 62 60 85 89 83 99 96 78 46 62 75 86 82 80 46 44
91 97 94 99 100 98 100 100 80 78 93 78 78 79 81 78 80 83 79 91 80 77 78 87 86 89 84 75 71 72 73 76 92 91 90 62 45 44 62 74 62 48 51 58
90 98 96 99 99 98 100 99 79 77 91 89 74 79 82 86 86 92 89 90 91 86 92 94 92 99 83 89 82 78 81 75 86 95 86 75 48 41 39 39 61 44 53 58
90 100 96 99 99 99 100 99 97 83 89 83 79 82 84 82 92 94 94 96 100 96 90 87 97 93 80 95 79 92 93 91 92 92 94 80 56 42 40 54 52 46 47 50
88 100 98 98 99 100 100 100 100 98 89 83 79 78 82 91 86 94 90 100 99 98 97 94 94 85 93 91 81 88 88 95 87 87 93 86 49 39 37 45 52 58 58 58
87 93 99 96 97 100 100 100 99 99 96 94 87 82 79 80 77 82 97 97 92 88 91 93 84 87 94 88 94 75 87 76 87 87 81 61 52 48 51 45 54 60 56 56
89 94 97 93 98 99 100 100 99 100 99 97 97 86 84 85 86 83 95 94 88 92 83 85 88 80 78 93 87 88 75 68 78 66 61 56 52 53 48 47 47 51 52 55
88 92 92 87 88 99 100 100 99 99 99 98 92 91 93 88 84 91 97 99 98 99 90 89 85 86 72 77 68 84 80 75 71 70 60 57 55 53 49 49 49 51 55 53
80 90 88 84 80 100 100 100 98 100 100 99 97 93 89 90 88 94 100 100 100 100 100 99 89 89 80 84 76 73 66 78 75 72 56 53 54 52 51 49 53 53 52 55
67 92 87 85 81 99 100 99 98 100 100 99 100 98 94 90 93 99 100 100 100 100 100 94 91 81 82 90 87 58 47 45 50 54 44 49 48 56 53 51 54 53 48 44
86 86 89 78 69 98 100 99 100 94 98 100 99 98 98 97 97 99 99 99 100 99 97 95 87 88 85 89 91 61 54 46 46 46 48 68 62 62 57 52 55 52 50 51
85 85 71 68 75 96 97 99 99 100 98 99 100 100 98 98 99 97 94 93 94 92 93 87 90 82 84 92 76 62 57 56 56 52 46 47 57 60 59 56 56 56 59 56
84 74 81 93 97 100 94 95 97 99 98 98 99 100 100 96 99 94 99 100 98 93 95 95 92 90 93 74 68 62 59 53 60 58 56 60 59 63 62 58 55 48 48 42
89 99 100 99 98 100 92 100 100 100 92 100 98 94 98 97 96 97 92 98 99 100 96 92 96 97 74 63 60 54 54 51 54 65 80 72 69 63 62 55 46 38 37 37
96 89 100 100 100 100 99 99 100 100 100 100 92 92 97 92 92 94 94 99 100 94 94 94 96 98 87 67 65 62 52 52 51 47 49 56 54 60 57 50 43 38 35 29
98 99 98 98 100 99 99 100 100 100 97 99 98 96 83 89 79 90 92 96 97 88 91 96 98 87 71 69 75 66 56 55 56 54 54 60 59 58 51 44 40 34 30 34
99 99 98 99 100 99 99 99 100 99 100 99 96 97 78 80 78 95 92 95 94 87 94 95 89 82 74 77 77 72 67 64 60 61 61 62 60 53 45 40 34 31 35 41
98 99 98 99 99 98 92 93 94 78 90 98 83 94 90 79 90 90 92 96 88 97 100 89 88 75 72 79 81 75 76 68 63 67 67 62 55 48 41 33 30 33 40 52
98 99 98 99 100 100 96 98 98 96 98 85 81 83 76 94 92 88 91 97 97 92 85 84 70 74 80 82 82 76 73 70 71 70 63 55 48 39 36 38 40 40 45 53
98 99 99 99 100 99 97 94 94 99 90 71 65 90 87 91 91 97 92 93 93 80 91 69 70 80 83 82 79 76 74 74 72 63 54 46 38 38 39 47 47 46 47 50
99 99 99 100 100 100 96 93 92 96 82 89 93 83 78 93 100 93 91 86 82 79 82 70 76 79 82 79 75 73 73 71 63 53 43 38 41 41 43 47 55 55 56 55

GFSNW_850_rhum_015.txt.gz
RH
88 92 99 96 100 98 96 88 100 100 100 97 97 95 83 65 88 79 82 79 68 80 82 90 91 94 72 69 74 91 74 90 97 76 66 56 63 69 73 94 84 68 84 71
88 92 97 94 98 100 100 96 95 100 99 98 98 91 79 75 78 77 73 81 73 74 81 87 87 74 53 65 66 81 78 99 96 97 88 86 100 86 68 66 80 80 72 49
87 92 96 96 92 100 100 96 100 99 99 94 86 85 87 84 71 71 69 84 74 85 88 74 71 73 51 54 58 75 85 100 98 89 95 96 96 83 76 67 79 71 68 50
83 94 91 89 99 100 99 95 98 97 98 98 78 76 76 82 90 83 79 86 94 92 83 88 82 65 58 59 56 77 92 99 100 95 92 97 99 76 77 77 64 70 51 60
82 91 97 95 100 100 96 96 96 86 81 88 80 80 85 83 81 90 96 97 87 86 95 72 64 56 58 70 84 83 95 99 100 95 81 94 100 95 77 69 65 64 68 72
86 92 91 96 98 98 100 99 97 77 83 82 90 91 87 80 77 80 77 82 93 90 81 71 73 71 64 61 80 96 100 100 100 99 96 96 100 90 84 69 64 70 94 68
90 90 99 98 99 100 100 100 96 93 91 79 77 82 75 82 81 84 83 84 89 73 77 78 78 78 73 64 72 73 97 100 100 100 100 98 78 82 64 70 77 78 83 80
89 91 100 98 98 100 100 100 100 93 90 75 77 78 83 84 86 84 82 83 83 75 81 87 86 86 79 80 77 79 74 79 97 99 94 68 74 94 91 95 90 81 84 76
90 87 100 97 96 100 99 96 88 99 89 86 73 77 83 93 92 91 86 88 85 93 94 89 95 92 75 88 84 80 87 84 87 93 98 78 50 64 65 75 80 69 77 75
90 87 99 98 95 99 100 92 100 87 80 81 76 83 87 78 88 91 90 89 98 97 93 96 97 93 79 91 81 72 90 89 93 76 92 81 57 46 48 81 57 52 60 58
90 90 94 99 94 100 99 97 91 98 84 83 79 76 80 90 84 92 90 97 99 99 99 94 92 83 89 88 78 89 88 92 91 80 94 77 53 42 46 48 59 57 55 56
91 92 92 99 90 98 99 98 100 100 90 89 82 79 77 76 73 76 91 88 95 89 94 92 85 93 95 90 90 81 88 82 87 78 79 62 54 54 53 52 57 62 59 57
92 91 90 94 89 98 100 98 100 100 98 93 91 86 84 82 81 82 89 99 91 98 97 87 89 81 88 96 92 83 78 74 79 76 62 64 53 54 49 50 51 56 57 55
94 89 91 89 87 96 100 100 100 100 99 98 87 87 90 87 86 89 92 92 100 97 100 93 89 86 73 81 78 84 82 77 77 76 66 60 55 53 49 51 51 56 63 63
66 41 89 87 90 79 98 99 98 99 100 99 96 92 90 90 86 89 98 100 100 98 100 100 94 89 82 87 80 86 79 79 80 80 61 56 55 51 52 50 54 56 56 66
27 81 83 89 95 70 98 100 95 100 100 98 98 96 96 92 92 94 99 100 100 100 100 96 93 81 81 90 87 63 52 55 57 59 52 51 52 54 53 52 58 58 55 55
90 81 67 64 70 69 98 100 100 100 100 100 100 98 97 99 94 99 100 100 100 100 100 99 95 91 88 91 91 64 57 50 49 53 49 65 62 60 57 53 58 56 50 45
91 68 46 56 58 62 87 96 100 100 100 99 100 100 97 98 100 99 96 100 99 98 98 96 96 86 86 95 80 60 58 54 56 57 52 48 55 60 59 56 54 48 46 46
86 87 95 88 79 93 97 100 100 100 99 99 99 100 99 98 100 96 99 99 99 98 97 96 96 91 94 79 72 69 61 54 61 60 55 60 58 62 61 56 52 48 55 51
87 99 100 100 100 97 100 100 100 100 96 100 99 90 97 98 98 98 94 98 99 100 96 94 98 98 74 63 60 60 58 53 56 64 81 74 70 64 63 58 53 48 46 40
93 92 98 94 100 100 100 98 100 100 100 99 96 90 97 93 94 94 94 99 99 96 90 95 97 98 89 71 65 64 57 53 55 51 48 55 53 59 59 58 51 42 37 34
98 99 98 96 100 99 100 99 100 99 96 99 98 96 78 88 84 89 93 97 97 91 92 98 99 90 75 73 75 69 60 56 58 54 50 56 59 58 57 51 42 37 33 29
99 100 98 99 100 99 99 98 100 100 100 100 97 98 78 81 81 94 92 88 92 87 97 97 93 82 69 76 78 77 68 63 59 57 58 58 60 60 51 43 39 34 30 36
100 99 97 99 99 99 99 95 95 82 95 96 81 92 90 80 91 92 97 95 87 98 100 90 91 66 67 77 83 77 74 67 60 60 62 63 60 54 45 40 34 28 36 43
100 99 97 99 100 99 99 99 99 98 100 85 80 83 75 96 91 90 93 97 98 95 86 88 62 66 78 82 85 79 74 68 66 66 66 62 55 46 42 36 33 35 37 45
100 99 98 99 100 99 99 94 91 97 100 81 66 89 90 90 91 97 95 93 94 80 92 64 64 75 83 84 84 79 74 72 72 70 64 56 49 43 39 43 42 41 43 50
100 99 99 99 99 99 100 100 89 96 96 96 94 87 78 93 98 95 89 87 83 73 70 69 70 76 82 84 82 79 77 75 73 67 60 52 44 37 38 44 54 53 57 57

GFSNW_850_rhum_018.txt.gz
RH
90 89 93 93 96 95 97 96 93 87 98 100 94 92 75 69 90 79 80 74 67 73 80 91 87 88 77 68 77 87 72 97 96 80 66 60 61 71 73 81 84 87 86 55
90 83 97 89 99 99 98 96 91 96 98 100 100 84 80 74 87 85 80 84 74 68 82 87 85 82 62 68 78 85 74 98 97 92 85 70 99 82 67 66 80 79 80 59
82 87 93 96 99 98 100 99 99 100 100 96 83 77 77 85 72 74 69 78 72 83 87 75 78 82 61 69 71 69 68 98 94 92 84 97 100 98 100 97 95 73 72 58
89 90 92 98 100 98 99 99 99 98 100 99 74 70 80 82 96 76 78 85 82 92 100 88 94 78 67 65 62 78 86 99 98 96 93 98 99 96 97 98 83 81 56 54
91 89 88 99 97 100 100 100 99 92 93 90 74 80 90 81 79 83 84 88 77 88 98 79 70 78 68 65 76 82 87 97 100 96 83 98 98 98 94 91 78 74 63 58
94 90 89 96 99 99 98 98 98 84 87 87 83 80 82 82 75 79 72 81 89 95 87 82 77 71 71 74 75 84 98 100 100 87 96 100 99 88 92 82 76 68 83 63
92 88 88 99 98 100 100 100 100 91 98 86 78 76 71 86 76 78 82 80 91 78 80 77 79 80 79 79 78 68 95 100 100 98 100 98 83 80 74 78 70 62 56 65
94 89 90 95 98 99 99 100 100 98 91 75 71 82 87 77 81 89 85 79 76 78 83 89 84 91 86 84 86 79 76 85 100 100 97 82 69 91 83 82 80 63 60 60
84 90 89 98 98 98 99 100 100 100 91 83 64 69 84 95 96 96 90 84 80 84 94 94 96 82 79 86 83 85 89 89 97 99 98 89 57 81 80 77 95 70 75 78
85 91 92 94 99 97 100 99 100 100 94 78 76 79 86 78 85 88 90 90 96 98 96 100 100 97 82 91 91 93 96 96 94 88 84 84 61 63 74 87 59 59 71 71
90 92 93 89 96 95 99 100 100 100 96 80 77 74 76 84 82 92 88 93 97 99 99 97 95 97 92 92 79 84 84 85 97 84 94 75 55 56 61 54 54 61 64 70
81 91 91 92 92 93 98 98 100 98 96 89 80 78 76 75 74 83 86 85 85 89 97 90 87 95 94 90 90 85 94 82 83 80 77 59 57 57 54 56 60 60 58 61
79 93 87 86 91 89 99 99 100 100 97 91 88 81 78 77 76 78 82 93 84 90 97 96 92 91 91 97 95 82 80 79 83 75 63 68 61 56 54 55 61 63 59 58
89 88 51 79 80 89 96 97 100 100 98 98 85 82 82 81 85 86 86 85 94 91 96 99 95 88 78 86 82 84 78 75 77 78 71 65 57 56 55 57 64 66 68 66
64 46 85 84 89 86 70 95 99 100 100 98 97 92 90 91 89 90 94 95 98 99 99 98 97 88 83 90 85 90 84 79 80 78 63 60 56 57 56 54 61 64 61 72
88 89 90 70 66 65 85 100 100 100 99 100 100 98 94 91 92 94 98 94 99 100 98 98 82 86 79 93 90 65 60 60 58 62 55 56 59 59 57 54 59 62 62 63
92 96 94 79 40 54 89 97 100 100 100 98 99 98 100 100 99 99 99 99 100 98 90 100 98 93 89 94 96 65 58 54 56 57 52 61 62 60 59 54 59 60 61 62
95 95 93 60 40 44 61 84 100 99 100 100 100 99 95 100 100 100 99 100 100 99 96 97 98 92 94 98 82 66 62 57 54 57 53 53 54 60 60 58 59 57 53 47
84 88 98 95 74 65 84 100 100 99 100 100 99 100 88 98 99 97 99 99 99 98 99 97 98 93 98 81 76 68 68 60 58 60 55 57 58 63 62 58 54 46 46 43
82 85 97 99 100 97 100 100 100 100 100 100 99 90 93 98 98 98 97 98 99 100 96 94 99 98 75 64 59 59 61 62 59 63 78 74 72 63 63 56 47 41 42 47
86 89 99 86 98 100 100 100 98 100 100 100 97 89 96 93 96 95 94 99 99 98 90 95 84 98 89 76 70 64 62 58 58 53 49 55 55 61 59 54 48 48 49 48
98 99 97 97 100 100 99 99 100 100 96 96 98 95 84 92 87 89 94 96 96 99 92 97 96 92 74 73 80 76 63 58 59 54 50 54 58 58 55 52 53 48 42 39
98 98 99 99 99 98 98 98 99 94 100 99 97 98 80 83 83 94 92 91 88 88 98 97 93 80 69 74 76 77 68 63 59 55 58 58 61 61 55 54 50 39 36 32
99 100 96 98 98 98 99 99 99 93 100 100 84 90 93 82 93 93 96 93 89 97 99 92 90 65 64 75 81 80 73 69 62 61 63 65 64 63 57 48 40 35 31 39
100 99 96 98 100 99 100 100 100 96 99 96 82 83 76 94 91 89 93 98 98 96 89 88 62 61 73 78 83 82 77 72 68 67 67 68 65 58 48 43 38 31 32 39
100 100 98 99 97 98 99 98 99 93 95 96 81 91 91 86 93 98 99 96 94 81 92 60 59 65 78 82 85 82 75 70 68 69 69 66 59 49 44 42 38 36 33 41
98 96 100 99 99 99 100 100 100 98 100 100 95 90 80 91 98 98 90 88 83 73 59 61 60 73 78 83 85 81 77 74 72 70 68 60 52 46 39 41 48 45 49 50

GFSNW_850_rhum_021.txt.gz
RH
84 78 85 96 98 99 97 100 100 95 94 99 100 96 74 80 88 78 78 71 69 75 78 82 73 84 73 68 77 88 74 91 98 85 59 64 66 70 73 95 78 85 87 62
78 92 90 80 94 99 100 100 98 99 86 99 100 83 84 83 88 82 77 82 69 70 80 90 84 80 64 71 77 85 76 98 98 83 84 69 94 80 78 92 88 94 91 57
77 92 88 89 96 99 100 100 100 100 98 99 92 81 87 91 74 76 72 76 73 81 84 71 82 84 65 69 72 70 65 92 89 72 66 93 99 96 95 98 96 75 78 60
78 92 87 95 95 99 100 100 99 98 100 99 77 65 71 92 90 80 74 85 79 80 95 87 87 81 71 76 72 74 80 100 96 89 78 81 98 96 99 98 84 90 58 56
90 93 89 94 82 100 99 100 99 98 95 88 70 76 76 79 91 78 89 87 79 82 94 92 84 80 78 73 77 86 82 97 100 96 85 97 98 95 96 96 88 80 68 63
91 93 85 91 89 99 99 98 99 100 86 88 85 87 88 79 75 81 73 75 76 85 76 78 83 76 68 73 76 84 96 100 100 91 76 95 99 98 96 95 87 79 88 63
94 95 88 93 91 99 99 100 100 100 95 82 78 76 75 81 77 82 80 79 84 81 78 86 83 84 82 85 83 72 85 100 100 97 98 98 89 82 81 90 74 69 66 58
91 88 89 92 98 99 100 100 99 100 94 82 75 77 70 74 71 85 80 82 80 81 86 88 95 92 94 89 94 92 79 86 100 100 98 84 75 81 86 91 90 64 69 64
83 87 74 82 79 91 95 100 99 100 93 91 69 82 83 92 90 93 90 85 83 84 89 95 100 88 86 82 80 91 86 82 99 99 99 97 63 67 78 73 79 68 61 60
81 82 71 75 71 83 98 100 100 100 100 82 70 69 79 78 87 93 96 97 98 92 95 100 100 93 82 94 91 95 98 98 98 97 99 79 62 65 76 72 60 64 67 63
78 77 84 39 67 83 97 100 100 100 100 87 76 67 77 80 79 92 97 95 95 99 100 100 97 98 93 95 83 83 85 90 97 84 89 85 56 75 64 53 57 62 71 74
70 90 91 37 71 86 90 98 100 100 100 94 83 79 75 73 71 81 93 92 88 86 98 96 94 97 92 91 90 85 93 78 82 80 76 58 57 56 55 61 64 64 64 72
92 92 91 83 86 88 91 96 98 100 98 87 88 84 80 79 78 79 88 92 79 87 84 99 95 98 91 97 96 82 80 80 86 76 63 72 63 60 58 59 66 67 65 68
91 89 90 92 84 80 78 82 99 99 100 99 84 87 87 83 82 81 82 80 88 92 95 96 96 96 80 89 83 86 78 81 79 81 72 66 59 60 58 59 68 69 67 61
90 93 90 90 49 48 49 77 98 100 100 96 92 92 92 92 89 89 90 91 94 100 98 98 95 94 83 90 87 91 86 79 81 74 61 62 58 60 59 62 68 67 62 68
88 97 99 100 90 66 63 100 100 100 100 100 99 96 94 91 87 88 92 96 98 100 96 90 80 82 75 93 93 67 60 67 63 65 58 59 60 60 60 60 65 68 65 63
87 97 99 100 88 64 82 98 100 100 100 100 99 98 99 100 99 100 100 100 100 99 94 98 97 98 89 96 98 67 57 52 56 62 57 62 64 61 62 60 69 70 67 66
95 99 98 98 59 35 54 93 98 98 92 100 100 98 94 99 100 99 100 100 100 100 94 97 99 98 98 99 86 66 61 56 56 58 58 56 58 62 64 66 70 69 70 67
59 78 95 98 84 71 76 98 100 100 100 100 99 96 87 100 97 99 100 100 99 98 99 98 98 95 99 86 78 69 65 65 57 60 60 61 62 64 66 67 68 59 56 53
71 88 84 91 99 94 98 100 100 99 100 94 99 93 94 97 97 97 99 100 99 100 96 96 99 98 77 69 70 66 62 66 62 65 76 72 72 65 66 64 58 59 44 44
86 96 98 86 99 99 99 100 98 100 99 99 96 94 92 93 98 96 96 99 99 100 91 97 94 96 88 74 74 70 69 66 63 59 56 57 59 58 64 60 52 44 43 44
99 98 97 100 99 100 100 100 100 100 94 97 98 94 85 92 92 93 95 96 97 96 91 98 96 89 70 70 76 79 73 66 63 60 57 58 58 59 58 52 48 47 48 48
98 100 100 99 99 98 99 98 97 100 100 99 99 99 85 88 87 93 92 94 93 88 98 96 92 77 65 71 78 82 71 68 62 58 59 61 63 63 55 49 49 50 48 46
99 99 94 98 98 98 99 99 99 99 99 99 99 90 95 85 93 95 96 91 92 95 99 94 89 64 60 72 79 82 73 69 63 62 64 65 64 62 56 52 51 43 40 40
98 96 97 99 99 99 100 100 99 99 90 100 88 85 82 94 92 89 94 97 95 91 94 89 63 58 70 81 84 81 74 69 65 64 66 68 66 60 60 55 45 38 31 37
98 99 94 94 95 93 91 98 98 100 100 100 94 96 94 89 92 98 99 98 95 82 92 63 62 62 73 78 84 84 79 73 67 67 67 68 65 61 55 48 41 33 32 37
98 90 97 99 99 100 98 98 99 99 99 100 100 99 87 92 98 97 92 89 85 73 57 60 65 71 76 77 84 82 78 75 72 72 73 70 65 56 45 41 40 39 43 45

GFSNW_850_rhum_024.txt.gz
RH
72 78 90 88 89 93 98 100 100 100 100 97 99 100 70 68 67 70 64 54 56 60 64 68 61 62 56 53 59 73 53 69 80 74 43 44 43 59 66 94 83 86 84 63
85 88 91 92 97 98 100 99 100 98 99 99 100 94 81 77 70 69 63 64 57 56 62 71 58 62 55 60 58 58 57 88 87 68 69 55 73 60 56 83 85 93 86 56
84 93 90 97 93 100 99 98 100 99 97 96 77 78 87 85 74 66 66 64 61 61 64 59 70 67 59 61 57 61 57 75 81 68 63 70 100 79 76 98 95 69 67 57
88 95 76 87 88 99 98 100 99 99 100 86 62 66 70 73 73 72 66 72 66 65 72 74 76 65 60 65 65 62 66 100 90 81 70 75 88 86 83 99 86 88 55 47
88 92 81 88 69 96 97 98 100 95 82 76 60 61 64 68 76 68 75 66 66 67 76 70 72 69 66 59 62 65 69 90 97 94 69 75 99 94 95 96 96 94 75 66
90 91 75 72 71 98 97 99 100 100 80 75 63 62 58 64 65 70 68 64 64 68 68 66 73 75 62 55 65 70 78 99 100 95 70 82 94 98 90 92 92 90 94 60
72 88 81 72 69 94 99 99 99 99 85 72 63 62 59 61 62 76 76 71 69 76 74 81 83 80 81 78 66 64 79 99 98 97 94 95 87 78 84 91 79 70 67 55
73 73 74 91 78 95 97 100 99 99 84 65 63 65 60 69 68 69 70 79 78 80 87 85 86 72 83 72 72 71 67 77 100 99 96 68 73 73 93 94 85 54 64 55
76 80 76 82 75 93 97 100 99 99 97 73 67 64 62 68 67 66 73 78 79 80 87 82 99 73 66 69 76 78 82 82 96 99 97 85 60 65 70 63 58 51 60 60
88 62 81 69 48 91 91 100 100 100 100 82 76 67 73 77 74 88 92 98 98 89 91 85 97 72 70 71 72 90 93 96 97 96 98 66 46 55 74 63 57 54 60 59
85 83 86 55 41 88 87 92 100 100 99 96 78 69 74 81 76 82 96 94 90 96 89 97 97 99 67 76 66 69 72 80 90 92 88 81 50 56 58 52 58 62 68 81
90 91 58 44 74 95 92 94 96 100 100 99 89 77 68 66 61 76 90 90 83 76 89 94 92 92 72 73 66 68 75 56 60 61 55 47 54 54 56 65 64 65 66 74
90 92 92 87 94 69 82 81 78 97 100 92 83 82 79 77 77 75 85 93 84 86 79 91 93 97 77 86 75 68 64 64 66 68 48 53 56 59 63 62 76 70 66 74
88 90 96 91 92 93 88 53 51 94 100 98 82 86 84 81 81 81 83 78 84 87 94 97 94 94 72 73 69 68 59 69 66 66 53 53 57 64 64 64 72 72 75 74
92 90 94 99 98 94 81 42 70 99 99 98 87 92 90 88 86 86 86 87 87 95 98 94 93 75 84 78 77 71 64 58 58 50 53 54 54 65 64 69 72 72 66 71
94 90 94 92 93 97 91 100 100 99 98 100 95 96 96 92 91 94 97 100 100 99 99 92 81 78 87 89 75 52 54 66 59 48 58 59 61 62 64 66 70 71 67 69
92 92 98 98 98 98 93 98 100 100 100 100 96 95 97 100 100 100 100 99 99 97 92 93 86 87 89 88 77 49 58 56 56 60 61 62 65 65 63 65 70 69 69 70
93 81 85 98 100 96 72 78 100 100 100 100 100 94 91 100 97 98 99 99 99 100 94 96 99 98 99 98 70 68 60 61 60 57 61 59 59 63 64 66 68 67 66 66
47 75 84 89 96 84 81 99 100 100 100 99 99 93 93 100 98 99 100 100 99 96 98 96 95 87 98 78 71 71 70 67 64 65 64 62 63 65 66 68 68 65 67 65
75 80 71 96 92 97 98 100 100 100 98 100 99 90 85 96 97 97 98 100 99 100 97 97 99 94 74 69 76 73 70 66 70 70 80 73 70 65 68 72 72 68 65 58
79 95 92 98 100 100 100 100 97 99 99 94 96 95 80 94 93 88 94 97 99 100 89 92 92 82 74 71 69 72 71 69 68 67 62 58 59 63 64 70 68 59 53 48
92 98 94 96 100 100 100 100 99 99 96 94 92 88 92 91 95 90 96 97 96 95 84 92 92 74 68 66 71 78 78 75 68 67 61 61 67 72 59 66 60 57 44 45
95 99 98 99 99 99 98 98 100 100 98 100 99 99 91 93 90 92 90 100 94 83 92 90 76 70 63 65 78 84 80 74 67 63 60 63 62 70 59 60 56 44 45 46
97 98 96 96 96 94 93 96 99 99 99 98 100 96 95 88 94 89 99 86 86 91 97 89 63 64 59 69 81 84 77 75 67 62 61 64 67 68 63 53 46 46 45 46
97 94 98 96 97 99 96 95 97 100 99 100 98 93 89 96 95 86 94 96 97 86 84 75 64 59 68 76 81 82 77 72 69 68 67 69 69 64 57 51 50 48 44 42
97 98 98 95 94 92 94 98 98 100 98 99 100 99 98 95 92 96 99 97 91 79 92 72 64 66 72 77 79 81 78 72 70 72 74 74 69 60 54 57 57 50 38 38
95 93 96 92 94 98 100 93 87 98 100 100 100 100 100 93 94 96 87 88 91 91 81 71 75 76 76 80 81 82 79 76 73 72 76 75 69 62 60 59 56 45 44 40

GFSNW_850_rhum_027.txt.gz
RH
91 95 90 96 98 100 95 98 100 97 93 99 100 99 94 53 57 56 49 44 48 54 52 56 55 51 45 42 42 59 50 57 78 64 38 37 39 59 58 90 68 76 81 64
89 94 82 97 95 99 96 98 100 99 98 99 100 90 83 62 59 55 51 54 46 44 50 57 48 46 48 45 48 51 51 78 81 73 56 43 55 50 47 66 77 93 90 59
84 85 85 95 86 89 97 98 100 98 95 87 69 90 89 75 62 57 50 53 44 47 50 49 52 56 54 50 47 58 47 60 79 68 62 68 99 74 64 94 97 72 64 55
86 94 75 95 82 85 96 98 99 99 97 76 59 69 77 72 62 57 53 58 52 51 57 55 58 52 55 56 55 54 54 100 86 72 63 65 77 76 74 94 95 98 70 63
68 90 80 90 88 72 97 98 99 97 74 62 53 61 72 57 62 51 58 56 55 53 57 57 66 54 52 53 56 59 61 92 90 87 56 59 84 64 77 95 95 96 94 94
67 88 79 86 86 83 96 98 100 100 76 54 50 53 53 57 50 63 58 52 54 58 58 63 57 63 63 55 61 65 76 99 99 83 63 75 85 95 96 96 91 89 91 66
83 90 90 76 78 94 97 100 100 99 73 57 48 51 49 52 52 61 61 58 56 74 75 76 77 72 68 73 71 55 66 88 97 99 83 86 61 56 69 90 85 54 58 62
73 61 92 81 46 91 100 98 100 99 89 50 50 52 49 48 57 58 60 72 78 79 81 85 65 73 76 69 72 68 62 71 98 96 73 56 56 54 63 91 87 54 77 73
80 81 84 83 32 77 98 100 99 99 100 60 53 50 51 59 58 62 62 82 84 82 78 80 82 84 55 65 81 73 74 72 96 90 94 81 50 47 52 60 73 53 65 66
42 58 70 65 41 66 92 99 99 100 99 86 70 53 58 56 56 66 73 93 92 87 85 89 74 71 55 63 59 77 90 96 99 96 98 62 38 44 66 73 60 56 78 78
65 94 85 78 63 62 71 100 100 98 99 90 82 68 65 70 65 64 88 88 93 97 95 77 71 81 61 62 48 58 68 82 87 94 96 81 44 44 58 53 54 54 55 77
82 89 91 91 94 91 69 99 80 92 99 96 90 81 72 70 70 78 82 88 81 71 78 74 80 88 62 57 60 52 63 47 60 55 50 38 43 48 51 59 60 56 62 70
92 91 90 97 91 97 96 96 64 87 100 95 94 86 79 77 74 73 82 90 84 78 76 82 85 92 77 70 58 55 50 46 57 58 43 41 44 49 58 66 67 72 70 73
99 90 98 87 99 95 95 100 78 77 100 96 82 75 80 76 80 78 78 83 81 87 82 92 90 87 70 67 66 64 50 58 56 55 45 42 53 60 63 70 71 73 75 71
98 98 98 92 97 88 89 76 61 66 99 97 86 93 84 83 81 83 83 86 90 95 97 97 94 79 74 66 69 67 48 52 55 47 47 49 50 63 65 69 70 69 72 72
85 93 89 92 94 95 98 100 100 100 100 100 95 92 97 90 91 91 90 92 97 95 98 94 84 73 77 95 92 48 46 47 45 43 57 58 61 64 65 70 69 70 72 72
79 98 97 97 98 97 100 99 100 100 100 99 94 87 96 94 98 96 98 99 99 98 96 93 82 77 89 82 74 43 43 49 50 54 59 58 65 60 67 71 70 71 71 72
92 78 84 90 96 99 88 89 99 100 99 100 99 87 85 99 90 94 99 98 99 99 95 89 94 86 85 88 61 58 56 54 56 59 62 61 61 64 71 72 70 70 70 71
63 80 80 91 98 99 96 87 100 99 100 98 98 94 96 97 92 98 99 100 100 94 98 94 96 90 96 73 68 63 65 69 64 65 70 67 65 69 71 72 72 69 69 69
76 81 98 99 95 94 99 99 100 99 100 100 99 84 78 93 85 89 90 100 98 100 96 97 100 89 68 65 66 72 75 74 68 71 76 71 69 69 71 74 70 68 66 65
72 96 98 98 99 100 100 99 100 98 100 94 89 85 73 89 84 81 93 95 97 100 91 93 92 80 64 70 64 68 71 76 72 67 68 64 63 65 66 72 75 67 63 60
89 98 94 100 100 99 100 100 99 99 94 95 92 90 87 89 93 88 91 100 96 99 78 88 94 66 67 63 63 72 80 82 84 74 67 63 62 60 70 80 66 64 56 49
99 99 98 100 98 99 100 100 100 100 99 99 99 99 96 93 94 91 92 100 96 78 94 86 74 69 58 63 76 87 83 84 83 76 70 64 65 72 75 69 69 55 47 44
100 99 96 96 94 87 87 89 100 99 100 99 99 99 95 89 95 87 97 81 82 88 96 90 61 71 70 76 83 89 80 77 73 68 64 69 72 79 73 68 60 56 42 43
99 97 94 89 94 99 99 96 98 100 100 99 100 98 91 99 99 86 96 94 94 82 81 83 83 76 77 83 85 87 84 76 72 71 71 73 75 75 71 68 60 44 42 44
99 97 96 91 98 95 99 98 99 99 99 100 100 100 100 100 95 97 97 95 92 91 93 88 89 81 80 85 86 87 85 80 74 74 73 73 76 76 71 65 52 48 46 44
93 88 91 99 91 95 97 88 80 91 98 100 100 100 95 96 98 97 87 93 93 93 96 94 84 79 78 78 84 87 87 83 79 77 79 80 78 73 66 58 57 52 49 44

GFSNW_850_rhum_033.txt.gz
RH
83 87 91 82 98 91 85 85 98 90 94 94 100 100 99 89 72 59 51 49 59 61 64 70 60 72 56 45 48 61 51 72 97 80 60 58 63 75 72 94 74 92 93 70
79 46 52 55 92 98 88 96 93 86 98 99 98 88 92 80 60 54 51 50 47 52 59 63 55 59 48 46 50 57 56 73 92 77 69 60 74 68 65 71 80 86 90 68
86 23 48 31 91 85 88 92 93 81 96 82 89 92 87 74 55 58 50 50 48 50 58 52 60 67 53 47 55 49 48 77 81 87 79 81 88 78 69 78 98 80 75 64
95 54 52 22 82 84 87 90 99 98 97 83 79 78 86 73 66 54 51 55 49 53 60 53 63 67 62 54 56 53 62 75 90 80 76 77 79 78 75 85 78 97 67 68
92 89 66 26 88 92 88 97 97 96 98 67 74 80 83 72 72 68 65 65 62 60 64 62 59 63 67 70 61 60 66 86 96 90 78 82 89 76 74 75 75 77 77 90
75 62 78 38 59 99 98 98 97 99 84 75 70 70 65 62 63 60 60 56 72 77 82 72 65 55 60 62 72 73 77 95 99 98 72 85 88 76 73 78 79 83 98 88
76 68 55 45 30 85 100 100 99 98 92 69 72 52 54 70 64 68 70 67 74 78 71 72 64 65 65 65 66 62 88 92 95 98 92 92 66 64 65 77 76 71 70 75
90 72 90 88 46 36 92 100 98 99 96 83 58 51 64 62 58 65 76 76 78 75 75 85 88 87 82 83 78 72 68 86 94 99 96 68 54 65 61 85 75 68 75 76
98 73 90 92 90 36 46 99 98 98 99 86 91 67 51 63 70 66 72 75 71 72 88 85 80 85 75 85 89 79 73 78 98 99 100 89 59 52 54 71 94 59 72 77
100 100 94 100 95 76 46 100 99 100 99 89 92 83 69 51 58 83 84 85 85 85 93 90 92 80 67 90 93 93 96 100 97 98 98 84 58 53 65 85 64 59 60 70
94 96 96 99 99 95 78 68 99 99 99 88 90 96 87 61 62 80 89 84 89 90 93 90 85 80 77 76 75 84 86 95 97 100 100 91 45 65 71 58 58 62 61 72
96 100 92 92 98 87 98 80 85 97 98 90 96 84 85 79 78 77 83 81 84 84 93 92 88 90 86 83 79 60 78 72 79 80 75 51 50 52 55 58 62 64 67 74
98 92 93 90 94 96 85 97 88 100 100 96 94 76 75 71 69 74 74 81 80 78 80 86 89 94 85 92 83 71 55 55 65 67 55 53 55 56 57 59 60 66 70 73
98 98 91 88 87 90 84 90 87 93 99 98 91 93 84 77 76 73 73 74 79 83 80 84 88 93 78 91 82 84 71 64 72 76 64 62 60 58 60 62 64 71 71 71
98 99 92 88 87 85 84 84 88 86 99 98 97 88 90 88 83 80 80 83 83 86 95 96 93 83 87 86 88 95 67 73 82 82 59 57 60 60 62 61 63 69 70 72
96 95 91 94 99 96 88 93 97 91 96 100 100 99 96 92 90 86 87 90 89 92 95 95 86 83 82 99 91 66 58 56 55 58 51 54 56 58 61 61 64 69 71 70
99 88 94 90 92 92 91 94 100 99 100 100 99 98 98 100 99 100 100 98 97 94 97 98 87 83 86 95 88 63 58 60 59 60 60 60 60 59 61 62 64 68 70 71
29 74 85 89 85 91 89 96 99 99 100 100 100 99 88 97 96 98 100 99 100 99 94 94 96 87 88 98 78 70 72 70 70 64 59 56 58 62 64 65 65 68 69 69
33 76 96 89 88 87 96 89 99 100 100 99 100 99 99 96 90 94 100 96 98 94 99 97 97 93 98 87 86 77 72 75 78 71 67 66 67 67 68 67 68 67 69 70
67 82 98 96 94 98 98 100 100 100 100 100 99 85 93 90 90 96 97 100 99 94 91 99 99 98 86 65 62 72 76 74 76 84 73 71 72 72 70 68 67 68 70 71
60 90 98 90 99 99 100 99 100 99 100 96 90 89 89 91 89 93 91 100 100 99 97 97 100 98 75 73 80 86 91 88 86 82 81 82 76 72 71 70 68 69 69 75
81 98 98 98 100 100 100 99 99 100 99 99 96 88 82 91 88 94 96 100 99 98 85 95 99 91 81 81 84 89 90 85 89 87 82 82 74 70 74 70 68 68 73 89
98 100 100 99 99 99 99 99 100 100 100 100 100 99 92 89 93 97 97 100 98 84 96 90 96 85 85 83 86 88 88 81 82 82 83 78 72 73 74 71 68 69 89 73
99 95 99 98 99 98 97 99 99 99 100 99 100 100 98 91 97 97 95 88 86 94 98 91 97 93 86 84 85 93 92 85 79 78 81 84 79 78 79 78 78 93 90 73
94 96 98 98 94 98 95 96 100 100 99 99 100 100 96 100 100 95 98 97 95 85 88 98 98 90 85 84 84 88 91 90 85 80 78 79 83 87 89 96 100 100 84 62
98 95 93 86 95 100 100 98 100 99 95 100 99 100 100 99 98 98 94 85 86 98 98 97 92 89 87 88 81 82 85 87 88 86 81 79 81 83 85 93 97 92 87 67
93 89 80 92 94 97 93 88 85 90 98 100 100 99 98 100 100 98 92 97 100 99 95 87 86 89 87 88 86 82 80 85 86 85 84 83 80 82 83 82 80 79 74 63

GFSNW_850_rhum_039.txt.gz
RH
46 12 20 56 60 61 56 69 86 81 91 98 99 100 98 91 84 74 59 61 64 69 69 65 65 67 61 54 55 62 56 80 95 72 62 59 64 71 77 83 75 98 87 79
37 8 17 37 65 66 69 73 78 76 84 97 99 82 88 87 85 70 55 58 52 57 66 68 64 66 50 55 56 63 56 79 92 83 69 68 76 73 71 77 83 96 92 73
23 11 12 21 64 70 79 74 92 63 76 92 92 92 87 73 61 59 56 59 53 56 59 57 73 65 65 56 52 52 52 75 76 84 70 80 91 81 77 79 99 88 85 74
10 18 10 18 61 71 74 84 98 99 98 85 86 80 81 81 88 63 54 54 54 57 70 68 74 66 61 60 62 62 62 83 90 79 74 79 77 76 84 87 76 87 66 69
17 14 12 15 63 81 83 95 97 97 98 91 80 78 76 76 75 72 67 61 63 59 72 71 79 69 65 60 58 68 67 94 94 94 77 87 95 82 81 80 78 79 72 72
32 42 13 16 38 91 95 93 98 94 88 86 79 72 65 66 64 69 75 66 71 82 82 76 62 51 52 55 68 76 73 96 93 98 78 90 91 86 78 71 70 63 78 63
49 58 63 36 21 72 96 94 96 98 93 91 79 75 65 66 66 73 77 72 70 82 74 66 61 60 64 60 62 64 83 84 88 100 88 95 62 59 61 71 70 68 64 66
57 79 61 63 68 24 77 98 94 100 90 95 80 88 74 69 70 76 76 78 78 75 73 84 80 82 74 75 66 71 65 76 98 96 99 74 69 57 72 83 68 65 72 64
82 88 79 80 90 57 33 99 99 98 100 92 98 99 78 76 76 74 83 78 70 70 88 87 85 95 75 95 95 73 77 78 85 99 99 94 76 57 61 65 82 62 70 65
94 82 90 86 88 94 55 64 96 99 100 90 99 98 85 67 75 82 83 86 81 76 90 91 93 84 72 95 94 100 100 99 94 88 98 85 57 52 65 79 67 60 60 64
97 90 90 97 90 91 88 76 96 96 99 92 89 98 100 95 76 88 81 77 83 91 88 90 89 88 82 84 78 88 89 97 99 96 98 94 53 75 75 64 60 62 64 65
100 96 95 90 90 93 95 81 80 84 96 92 87 81 84 91 99 95 86 75 83 76 92 92 94 89 90 84 88 77 94 85 86 85 78 54 51 55 56 60 61 62 65 66
100 98 91 95 93 86 87 91 83 83 89 74 67 39 63 80 88 92 94 81 72 83 81 83 90 95 91 91 92 79 70 62 73 78 63 66 54 56 58 55 60 61 62 68
100 95 82 92 82 86 93 94 90 92 86 99 85 99 79 85 85 90 92 80 76 78 80 84 91 90 80 89 83 89 78 70 75 80 65 53 53 57 55 56 60 60 60 68
99 96 85 91 90 81 88 97 94 89 84 97 91 85 96 93 80 79 84 79 74 75 93 91 93 86 88 90 93 96 76 75 81 82 58 66 62 59 61 57 59 58 60 66
98 88 91 91 90 92 93 91 81 88 91 93 98 98 100 100 92 81 78 87 84 85 84 86 88 83 81 98 96 65 70 77 84 78 78 69 66 63 61 60 59 58 60 66
95 90 86 86 87 99 83 76 98 88 98 94 98 100 100 100 100 97 97 96 96 90 98 96 90 86 83 94 90 79 74 73 80 80 78 75 70 69 62 62 61 60 61 65
77 44 78 86 83 88 98 85 97 99 97 99 99 100 98 96 99 99 91 100 99 99 95 98 93 88 85 98 78 75 74 72 62 76 74 72 78 70 67 65 64 64 64 65
55 59 94 87 90 84 94 77 94 99 99 98 100 100 100 96 97 99 100 99 99 93 99 96 92 93 97 87 84 82 80 90 96 88 79 69 74 74 70 68 69 70 67 67
41 94 98 89 91 94 100 97 99 100 99 99 100 96 100 93 98 100 97 97 97 100 97 98 99 95 94 82 76 80 85 93 92 92 93 88 84 86 77 72 72 71 69 68
45 98 96 94 100 100 100 99 99 99 100 100 98 96 94 97 94 98 92 100 100 100 98 100 100 99 95 78 76 80 93 94 89 93 93 95 96 85 85 85 81 74 69 68
73 98 99 99 100 100 100 99 98 100 98 98 98 90 92 94 93 95 98 100 99 98 92 100 98 94 84 80 80 90 98 92 89 96 96 93 88 84 81 84 83 79 71 69
88 100 100 100 99 99 97 96 96 99 99 100 100 99 94 88 88 97 97 100 98 87 98 94 97 91 84 83 83 81 86 89 87 95 95 95 88 83 80 78 78 78 71 70
100 100 99 98 97 92 96 96 99 100 100 100 100 100 99 95 96 98 96 85 90 100 100 94 95 88 86 86 86 81 86 89 88 86 86 87 93 88 91 79 78 75 71 69
96 98 99 99 92 99 98 95 100 100 100 100 97 99 95 100 100 98 98 100 98 90 88 98 89 85 82 76 73 81 78 79 82 82 81 80 80 82 92 100 100 98 88 81
90 98 100 89 97 99 99 99 100 99 100 100 99 100 100 100 98 99 98 93 88 88 97 88 85 82 76 71 62 61 75 76 75 79 82 83 81 80 81 91 100 100 100 97
97 97 89 93 94 97 99 99 96 99 100 100 100 99 95 99 99 99 92 94 94 91 80 76 76 76 75 70 51 42 50 62 67 72 77 82 83 82 81 81 84 94 99 100

GFSNW_850_rhum_042.txt.gz
RH
9 7 7 16 53 49 44 62 87 71 70 96 98 94 86 88 83 69 58 61 64 70 68 68 70 70 60 53 55 63 62 83 86 75 64 61 63 74 72 81 77 95 93 71
10 7 7 10 36 58 66 69 66 63 74 95 98 86 82 88 76 65 55 57 54 59 62 67 63 62 54 55 52 61 57 78 93 83 68 68 77 73 71 75 81 97 91 60
13 8 6 10 27 64 63 69 91 66 72 93 91 90 85 76 63 58 57 60 53 56 62 65 72 65 68 57 52 52 54 73 76 81 69 80 91 82 76 78 95 86 85 72
23 10 8 9 31 73 70 77 96 97 98 89 93 81 79 79 82 63 56 56 54 62 71 71 75 67 64 63 66 63 62 85 90 77 71 79 77 76 86 84 78 86 67 76
40 21 9 9 31 79 76 92 97 94 93 94 83 74 74 78 78 72 65 66 71 66 68 64 79 69 65 63 62 66 65 97 92 88 78 84 94 82 82 83 78 80 70 72
51 26 21 10 22 79 93 94 94 99 86 88 80 79 70 68 65 71 75 65 74 79 81 77 61 56 55 57 70 75 73 95 92 93 81 89 92 88 82 79 72 65 84 59
67 32 48 30 66 57 92 92 93 96 94 92 83 83 75 71 70 70 79 71 69 78 72 67 58 59 62 61 69 63 82 82 87 99 86 93 56 63 66 65 63 59 60 58
72 59 50 65 87 55 66 95 93 99 91 87 86 89 80 70 71 77 77 82 82 76 72 80 80 80 70 74 64 71 61 77 95 93 95 76 67 73 75 72 68 64 65 59
82 78 67 90 82 91 56 88 96 96 99 92 94 93 90 79 78 76 85 80 75 76 87 86 88 98 82 97 98 74 78 74 84 95 98 98 74 60 61 60 93 58 72 73
94 95 93 87 82 92 81 71 70 95 98 87 96 90 98 78 78 83 86 82 79 74 90 90 93 88 75 93 97 100 100 99 94 76 96 84 61 55 64 94 69 60 62 64
82 95 98 75 87 92 91 80 80 78 96 88 90 95 99 96 87 87 82 82 82 91 86 89 88 89 88 87 82 89 92 88 82 80 99 93 60 72 84 66 60 61 61 61
79 98 99 95 82 89 99 98 87 89 91 61 58 63 75 76 93 98 96 73 83 76 91 93 92 91 92 86 94 79 93 85 93 91 78 53 57 60 54 57 58 58 62 63
80 95 100 92 77 92 92 99 98 99 98 81 80 33 18 33 70 81 97 83 73 80 79 86 90 85 91 97 95 85 75 69 79 80 66 68 55 52 58 61 58 59 60 63
86 98 99 92 78 82 88 100 100 100 92 90 71 71 80 81 90 88 89 90 80 79 79 85 92 90 81 89 81 88 79 73 76 82 69 55 56 61 61 62 60 60 60 60
95 99 100 88 80 85 84 90 85 94 94 86 85 43 22 60 86 98 90 98 98 77 85 92 93 88 88 93 94 96 80 77 81 81 67 72 67 59 62 65 62 61 59 58
98 99 97 84 86 91 95 84 82 99 100 96 97 82 84 95 97 100 99 100 92 80 81 90 82 81 80 96 98 76 75 80 86 83 80 80 74 72 76 70 66 63 61 60
98 99 81 46 83 92 99 78 81 94 98 96 97 97 98 99 98 100 100 100 87 84 88 94 87 85 84 96 93 83 74 74 76 77 77 78 75 74 74 73 69 65 63 64
99 88 46 84 80 81 99 91 85 99 97 99 99 97 100 99 99 98 100 99 97 96 98 99 94 94 89 92 78 76 78 78 74 79 75 79 70 67 70 74 72 67 66 68
87 46 89 82 90 83 88 78 88 99 97 98 99 100 100 98 94 95 90 100 98 96 98 96 86 93 98 82 80 82 83 80 80 72 82 84 89 82 73 76 73 72 71 70
41 96 94 90 90 97 100 99 99 99 99 99 100 100 99 97 96 97 95 100 98 97 94 97 99 85 89 86 79 74 74 78 91 96 88 89 87 88 86 88 81 75 74 71
44 99 99 92 99 99 99 99 99 99 100 99 98 100 96 96 93 98 89 99 100 97 99 100 95 97 93 84 73 75 77 89 93 93 100 99 100 96 93 82 87 86 83 74
51 88 99 99 100 100 100 99 99 99 97 91 99 92 99 97 95 95 100 100 100 99 97 100 96 92 84 76 76 74 82 90 89 94 100 100 99 94 89 86 82 85 88 79
66 100 100 99 99 98 99 95 97 99 99 96 100 99 98 94 92 98 98 100 98 89 99 96 95 91 82 80 81 81 86 91 91 89 97 100 100 96 90 80 80 80 82 77
87 100 99 98 98 97 92 96 99 99 99 100 100 99 99 96 95 97 94 88 95 99 99 96 97 85 85 85 84 78 82 86 87 87 87 85 84 90 92 94 80 78 76 73
83 99 98 98 94 99 100 100 100 100 100 99 100 100 96 99 100 98 98 99 99 93 87 96 86 85 81 71 67 72 74 75 79 84 86 85 84 82 85 92 97 99 94 87
85 100 100 90 98 96 100 100 99 98 100 99 100 100 98 99 93 99 98 97 89 85 98 85 84 81 74 68 54 50 61 67 67 69 73 78 79 80 81 83 91 100 100 98
99 95 90 94 94 95 95 100 100 100 100 99 99 99 97 94 99 99 93 94 91 86 84 80 81 76 76 71 51 38 37 42 42 49 58 64 73 80 80 80 82 85 97 100

GFSNW_850_rhum_045.txt.gz
RH
20 9 7 6 11 46 44 49 83 63 62 81 97 100 92 85 78 65 58 62 68 76 72 71 74 68 66 55 55 64 62 79 93 79 65 62 64 74 68 76 73 89 84 50
45 33 8 6 9 50 66 62 55 59 62 92 98 83 78 86 73 64 56 58 56 59 64 70 66 63 57 55 53 62 60 79 95 85 68 67 77 73 68 71 80 98 79 40
49 50 16 8 8 55 75 69 82 61 66 91 88 90 82 72 64 59 57 58 53 58 64 68 71 67 68 58 57 55 53 73 72 76 66 80 92 83 72 77 89 79 78 59
46 44 22 9 7 52 73 81 96 97 98 88 94 83 79 79 78 64 55 55 53 61 71 72 75 69 72 67 67 61 62 86 88 74 69 78 78 80 81 83 77 80 58 70
47 53 34 12 9 37 80 92 90 90 90 93 88 75 73 77 77 84 63 65 66 60 66 62 78 72 70 70 64 64 69 95 91 84 80 83 92 80 81 78 74 76 71 70
61 63 54 30 16 27 87 89 92 93 89 89 82 80 73 71 68 76 78 72 74 78 78 76 64 57 56 61 70 73 73 95 88 86 79 86 92 87 80 81 78 67 81 61
80 71 72 54 62 33 74 88 99 94 92 93 88 88 84 76 77 70 78 69 65 76 65 62 58 59 63 62 69 62 77 81 85 90 84 94 52 63 67 68 65 64 60 56
96 82 84 65 80 66 44 85 89 100 86 78 89 96 96 74 73 79 79 82 78 73 72 76 80 78 68 75 69 65 59 77 92 92 87 73 66 76 74 71 72 58 59 54
98 99 95 87 76 87 67 54 79 85 98 90 88 86 93 86 80 78 89 83 82 77 85 80 92 96 82 95 94 77 75 73 78 93 86 97 62 63 61 62 97 60 66 69
92 97 93 95 73 87 84 74 63 76 95 82 91 90 94 95 82 83 88 84 81 75 88 90 95 88 76 91 86 96 99 98 94 89 77 82 62 62 65 95 78 56 64 65
95 75 88 99 85 78 86 85 82 76 75 59 67 84 98 97 95 90 84 84 83 89 87 88 88 89 89 88 82 75 86 87 89 84 91 91 62 72 81 72 60 61 62 63
88 76 88 99 99 91 98 96 88 81 94 66 58 50 52 60 88 98 100 81 80 75 90 91 91 93 92 86 94 81 91 78 82 72 71 55 65 71 64 64 60 60 61 63
90 94 85 99 98 73 88 93 97 100 100 87 86 41 40 43 30 64 93 92 79 77 73 83 91 84 90 97 94 87 79 72 84 83 70 70 56 56 54 58 61 62 62 63
96 97 94 99 97 81 90 97 100 96 99 99 68 58 51 53 65 68 74 88 98 91 89 86 90 90 81 89 81 88 79 79 79 83 74 62 62 61 62 64 66 66 65 62
98 94 95 99 96 82 86 88 87 98 99 92 83 68 68 48 40 79 92 82 80 100 88 88 93 90 89 95 95 98 84 81 87 88 69 73 69 70 77 74 71 66 66 63
99 95 99 98 91 79 96 92 79 94 100 99 94 60 63 91 51 66 100 100 100 100 81 85 84 83 79 95 96 75 73 71 71 81 82 82 78 78 80 77 74 70 69 65
98 98 99 79 52 97 97 82 80 89 88 99 96 96 99 100 96 97 100 100 100 96 85 88 87 88 82 88 85 74 82 82 76 76 80 80 79 75 71 68 72 73 70 67
96 99 69 73 88 84 92 89 88 90 96 94 98 94 99 82 100 99 100 99 97 92 84 94 97 95 88 97 71 76 75 75 78 78 80 77 78 79 74 70 71 74 71 70
98 70 80 92 93 84 83 93 96 98 96 98 99 97 98 92 96 97 94 88 97 96 96 95 95 95 97 79 79 78 81 81 82 76 73 84 85 86 87 82 76 76 73 74
91 73 100 96 91 95 95 99 99 100 99 98 99 99 99 96 87 98 95 95 99 100 87 94 99 95 80 83 80 77 80 74 74 86 88 90 87 90 89 90 86 86 79 76
51 91 99 98 96 98 99 99 99 98 100 99 98 100 98 98 96 95 97 99 100 99 94 100 100 97 94 89 79 74 69 75 91 94 90 98 100 99 98 92 90 86 85 84
66 64 91 98 98 100 100 99 99 100 98 99 98 95 99 98 96 94 98 98 99 99 98 100 88 91 93 84 75 72 76 82 88 90 92 100 100 100 99 92 89 85 84 85
63 96 100 100 98 98 98 95 97 99 100 97 99 98 100 96 90 98 99 100 99 93 99 95 92 92 82 76 76 80 85 84 86 88 91 97 100 100 100 89 83 82 82 85
64 99 98 98 98 99 94 95 99 100 100 99 100 100 98 98 95 97 98 96 95 99 99 97 94 87 85 82 80 82 81 81 84 86 86 85 84 82 92 100 96 88 79 75
74 99 98 98 96 98 99 99 100 100 100 100 99 100 99 99 94 96 98 99 99 92 83 93 89 82 81 74 73 76 73 68 68 71 74 78 81 82 81 85 97 100 99 94
72 98 99 90 98 95 99 99 99 100 99 100 100 97 99 95 91 99 98 97 96 86 96 85 82 82 68 57 49 48 52 48 46 49 55 62 69 76 80 82 83 92 99 99
97 93 87 91 93 96 91 100 99 100 100 99 100 98 93 94 99 99 95 95 89 73 78 80 76 68 65 66 49 38 33 29 25 25 31 41 54 66 74 74 80 81 82 92

GFSNW_850_rhum_051.txt.gz
RH
46 47 45 42 8 8 38 81 82 59 64 81 77 83 62 65 51 50 47 48 49 47 50 51 49 55 48 44 38 45 48 58 78 68 50 47 45 44 42 56 63 53 53 32
48 46 46 50 8 16 62 78 67 59 63 77 71 60 55 55 46 45 44 47 47 46 47 53 46 47 52 47 42 43 43 70 85 75 58 52 61 50 44 45 64 85 49 33
52 50 49 47 13 10 67 80 81 78 69 72 52 51 50 52 58 46 44 44 42 45 46 42 52 51 54 52 48 48 41 51 68 61 64 61 85 58 52 69 80 48 38 29
53 57 55 48 20 13 74 78 83 91 84 63 57 57 54 53 52 48 44 43 40 42 48 45 47 48 52 49 55 46 44 99 88 53 53 66 70 62 59 81 59 70 38 30
57 64 66 54 34 16 81 88 90 86 72 66 60 62 56 55 56 55 46 45 39 37 39 37 44 44 44 46 47 45 50 89 81 68 53 58 78 58 54 59 58 50 45 45
63 74 74 64 53 19 80 92 98 99 72 57 57 52 54 57 55 61 56 44 42 42 46 47 46 38 39 39 44 47 54 78 84 70 58 61 67 55 54 52 50 49 56 40
64 79 78 71 73 45 84 95 99 97 73 60 59 65 66 61 58 55 56 55 47 59 59 51 46 44 44 43 42 40 52 61 65 77 75 80 50 47 43 45 42 42 39 35
71 79 84 82 81 68 74 52 94 98 60 56 57 67 74 75 62 60 55 67 65 58 57 53 58 58 52 49 46 45 40 46 63 70 58 44 34 49 55 58 54 40 43 39
78 82 78 84 96 82 86 71 59 95 78 54 73 72 76 79 57 59 66 85 79 78 58 60 77 69 50 62 65 52 46 42 55 68 76 65 54 48 46 45 68 41 41 43
90 87 79 76 87 95 81 92 82 93 75 50 68 51 78 92 82 68 67 76 76 79 66 68 66 64 46 61 59 71 63 58 71 68 72 52 33 52 52 78 82 56 56 58
94 82 84 83 91 99 88 98 91 94 77 68 64 57 62 55 80 93 89 77 76 73 69 64 57 52 52 53 48 55 60 64 65 62 77 76 39 57 62 59 60 58 60 66
99 81 85 87 94 99 90 99 97 91 100 75 65 75 72 65 58 67 95 97 73 55 59 50 48 50 53 49 62 46 60 45 50 49 50 37 44 50 60 66 64 64 65 64
93 84 86 91 95 97 98 99 99 98 98 83 82 79 75 74 58 72 72 95 97 80 84 65 54 59 46 58 54 54 49 42 53 51 42 40 45 55 67 68 68 63 66 64
91 85 86 90 91 92 99 99 99 94 94 94 65 65 55 56 49 56 63 80 94 94 97 80 64 58 52 47 50 48 46 51 55 52 46 53 50 52 58 66 63 66 67 66
80 87 95 89 90 100 100 98 80 98 98 86 82 79 74 70 69 80 82 78 80 95 98 92 72 61 60 59 61 56 50 49 57 54 42 44 45 59 72 71 71 67 67 67
83 95 94 90 99 100 73 100 80 79 79 98 89 77 66 69 97 92 83 81 80 94 99 98 77 75 67 73 61 42 43 49 47 46 58 64 68 76 72 72 73 73 69 70
84 91 90 88 84 66 97 90 89 92 97 97 84 79 80 100 94 82 82 90 100 95 98 98 91 80 77 72 68 42 45 53 60 69 72 71 76 72 78 76 72 69 66 66
86 89 91 88 71 91 93 82 85 98 97 96 91 82 82 99 93 78 79 91 99 99 100 99 90 88 85 95 66 57 54 66 70 74 77 76 76 76 73 71 71 71 73 72
89 86 92 78 92 99 81 96 99 98 98 97 92 91 96 99 94 97 91 90 96 99 97 99 97 94 96 71 65 60 65 68 68 76 77 77 76 75 79 82 83 88 86 80
84 86 91 99 94 89 92 100 99 99 98 98 92 95 95 99 99 99 98 99 96 100 88 98 97 97 73 72 75 66 66 75 77 81 83 79 82 88 94 95 95 94 92 90
81 62 100 90 88 94 99 98 99 98 98 98 99 99 99 100 99 97 95 98 98 100 99 96 95 83 74 84 83 80 80 79 77 76 79 83 87 96 100 99 100 99 92 91
82 71 75 66 96 98 100 96 99 100 94 99 97 96 99 98 100 94 98 100 98 98 97 100 92 69 83 81 84 81 78 75 79 86 86 92 98 99 100 100 99 88 86 94
86 72 97 98 98 97 97 90 87 94 98 100 99 99 100 98 97 98 98 100 98 96 99 87 69 86 86 85 84 80 77 82 84 92 99 99 99 99 99 99 100 92 85 89
64 93 86 92 88 84 87 90 99 99 100 99 100 99 99 98 99 96 100 96 96 93 91 80 62 83 81 86 82 90 82 91 98 86 86 89 82 82 85 95 99 100 99 91
57 92 84 89 83 99 99 99 99 99 99 98 98 99 100 100 100 96 97 98 90 76 70 73 86 85 82 79 78 92 74 75 68 63 58 53 58 67 72 75 77 82 93 100
64 86 90 82 92 85 100 99 99 99 99 99 100 100 100 97 100 98 94 88 79 76 92 89 80 83 78 77 80 98 59 44 34 32 31 29 35 41 46 52 60 68 75 80
93 88 83 87 94 87 86 94 95 94 99 100 98 100 94 99 99 90 83 90 91 91 88 75 82 76 70 62 57 53 95 60 30 27 22 22 25 31 37 41 49 60 70 76

GFSNW_850_rhum_054.txt.gz
RH
37 36 39 47 37 9 20 80 90 69 59 90 81 98 62 54 48 49 46 47 48 47 46 46 48 56 52 41 40 51 52 68 93 75 50 47 53 55 54 97 85 72 76 52
40 37 42 50 39 12 45 83 64 69 62 97 82 56 53 52 46 43 42 47 46 44 46 54 48 54 52 45 46 50 50 81 88 78 62 53 64 54 48 63 80 87 82 56
42 38 50 52 41 12 67 79 92 78 73 63 63 54 50 53 54 45 42 44 42 46 47 42 53 59 52 51 50 44 44 59 79 86 77 76 84 64 57 77 92 67 63 45
42 47 61 55 46 22 69 72 82 88 94 72 66 56 56 51 52 48 43 44 43 44 49 46 50 55 59 51 48 47 57 95 84 60 57 83 79 68 65 81 73 78 50 39
43 60 66 62 51 30 67 82 89 87 76 67 62 62 55 55 50 53 47 50 38 37 41 40 47 48 51 54 51 50 58 92 86 72 54 58 82 67 62 66 66 65 58 54
58 65 70 69 63 38 79 65 88 98 68 58 61 70 67 60 55 57 52 53 42 43 58 50 45 39 39 40 53 53 66 88 92 85 62 65 80 65 64 59 58 60 69 49
67 70 72 76 75 54 76 76 98 86 73 64 65 60 65 67 68 73 52 53 50 57 52 47 44 42 41 40 41 41 59 76 86 92 81 94 54 48 48 54 51 51 46 44
72 76 76 75 84 82 82 66 78 91 68 46 48 65 67 70 65 65 60 69 60 54 51 56 60 60 53 50 45 47 46 59 80 90 89 60 44 53 57 56 58 42 48 44
83 84 72 73 86 81 83 93 64 87 78 57 47 52 61 76 75 67 67 75 65 69 70 66 80 87 63 69 67 54 47 53 64 81 73 86 66 49 44 45 81 42 42 44
83 84 76 77 84 88 92 97 88 88 75 57 58 60 71 81 90 88 70 77 76 76 76 76 78 74 47 68 66 77 73 67 82 66 80 65 43 53 48 82 83 57 50 59
94 81 71 86 94 92 89 98 94 82 80 71 67 66 58 56 61 99 95 82 78 81 83 73 66 66 66 53 47 58 64 71 74 68 90 87 50 61 73 70 59 60 62 65
90 77 74 92 90 92 91 97 100 100 96 74 66 67 67 53 60 62 70 99 93 87 82 71 60 61 54 58 65 51 68 57 60 58 68 45 42 52 60 59 61 64 63 66
85 75 72 84 91 87 90 94 100 98 99 78 69 68 75 69 56 56 70 73 97 95 100 96 78 71 54 68 63 59 53 44 60 52 47 45 44 50 66 69 66 61 58 61
93 85 73 85 90 89 100 100 99 99 97 94 65 68 60 66 54 56 67 58 82 85 90 98 91 81 50 63 60 57 52 53 59 61 53 51 50 45 63 66 68 65 65 65
92 90 91 86 90 94 92 94 91 94 99 90 93 71 72 62 72 75 72 74 79 81 90 99 94 66 64 65 72 73 55 62 73 69 49 49 50 51 58 63 69 68 66 64
94 86 90 88 92 93 80 95 82 78 89 89 97 74 75 70 87 92 99 85 81 87 94 96 98 84 69 88 83 47 41 44 45 56 58 60 63 64 67 72 69 67 67 67
92 88 90 93 90 75 98 95 97 88 90 100 93 85 78 95 81 82 83 79 92 84 89 96 91 98 88 88 84 45 44 46 50 57 65 70 70 72 72 72 71 68 65 66
91 90 92 91 87 80 89 94 84 89 94 98 96 90 80 96 94 84 81 83 87 91 84 98 88 83 97 99 72 54 52 55 59 66 72 72 76 75 75 73 70 69 69 71
89 87 87 85 90 89 91 82 95 99 97 99 95 96 97 100 99 99 88 92 96 88 92 97 97 91 94 85 69 64 62 65 68 72 76 77 76 75 76 75 78 83 83 86
81 81 98 87 92 91 91 100 99 100 100 100 93 89 96 99 100 99 98 91 99 99 84 97 100 97 83 72 73 70 64 67 70 75 81 82 80 81 84 85 89 92 93 93
78 72 91 98 90 69 99 99 99 99 98 98 98 98 99 99 99 99 98 98 99 99 94 99 100 96 84 82 79 75 73 73 76 78 79 79 80 86 92 97 98 99 98 92
85 85 84 86 96 95 99 96 98 100 96 99 97 99 99 99 100 96 99 98 100 99 99 100 97 87 81 81 83 83 80 78 76 78 84 88 97 99 99 99 100 99 87 85
89 84 98 95 95 97 94 96 98 99 99 100 99 99 100 99 100 99 99 99 99 86 99 91 88 88 83 82 84 83 79 78 83 96 100 98 92 96 99 100 100 100 99 92
79 93 94 91 90 90 91 97 100 99 99 100 100 100 100 99 100 96 100 91 98 98 93 82 83 82 82 83 81 80 82 96 99 94 92 83 82 82 81 81 86 92 98 99
75 83 95 91 78 93 99 100 99 99 99 99 99 99 100 100 100 99 99 100 97 82 75 96 84 80 80 83 80 84 80 94 92 73 58 48 46 50 56 60 63 67 73 85
84 78 96 81 93 90 99 98 98 99 100 96 100 100 100 99 100 99 94 94 90 93 100 90 81 84 84 78 84 83 66 54 41 38 40 32 32 34 38 41 44 48 55 63
95 88 69 82 90 94 82 88 90 96 98 99 99 99 99 100 99 95 86 95 99 90 86 80 84 82 77 74 85 94 68 92 74 33 28 25 24 24 22 20 24 35 49 60

GFSNW_850_rhum_057.txt.gz
RH
30 28 43 45 43 30 22 71 95 78 72 99 91 97 83 58 52 52 56 52 54 50 49 50 64 69 58 43 43 63 54 81 99 92 68 71 70 76 70 93 85 74 82 58
30 27 47 44 43 31 55 77 73 85 87 98 93 60 58 58 56 46 47 50 48 48 49 59 56 66 54 48 54 55 57 80 96 90 68 60 92 73 67 65 77 84 79 62
30 35 49 46 46 42 67 78 95 65 84 71 72 72 62 66 51 50 44 46 45 48 50 44 58 66 54 51 50 47 49 73 78 83 71 75 83 68 63 76 86 69 75 46
35 51 51 50 48 35 46 69 83 84 97 85 79 71 59 59 64 52 44 48 48 53 53 51 58 63 62 54 46 50 62 83 80 67 75 80 79 72 72 78 66 74 56 49
48 58 57 64 53 42 23 88 89 89 87 76 76 69 74 63 60 54 57 53 52 44 55 49 58 60 63 65 55 55 68 93 86 64 62 72 85 71 71 73 65 66 66 67
60 66 60 68 63 46 43 46 76 89 77 70 75 76 72 72 76 57 54 57 64 59 61 51 46 43 44 50 61 65 74 89 91 87 65 70 75 70 69 67 66 61 76 51
68 70 66 61 71 68 62 65 83 84 88 64 50 66 70 73 74 81 69 64 62 56 52 46 43 43 44 42 48 52 79 78 90 94 83 88 50 52 56 58 57 62 57 52
72 71 72 66 71 76 75 66 65 90 97 70 54 50 69 70 70 75 67 72 60 57 55 63 65 70 57 53 47 48 61 74 86 93 95 60 54 59 58 68 62 54 56 49
80 76 65 69 76 78 84 82 67 84 90 76 60 64 58 83 93 82 79 73 64 62 80 74 86 93 72 72 68 55 55 54 72 86 84 89 62 48 45 50 83 48 48 50
91 86 69 83 88 80 86 94 91 73 85 66 64 63 66 59 87 95 85 89 77 73 84 85 88 85 60 81 87 79 76 71 84 76 83 66 49 50 49 83 70 53 48 47
93 76 73 84 85 82 82 88 96 92 88 84 63 58 62 61 61 91 86 91 88 88 85 87 81 77 70 62 61 70 79 80 83 74 90 92 53 61 74 65 62 60 59 61
76 78 77 77 92 78 91 95 99 99 99 84 78 72 71 69 58 67 63 98 91 99 98 87 78 70 69 71 76 56 72 66 74 70 74 48 55 57 59 58 59 61 58 63
78 84 78 77 90 87 92 100 100 98 99 87 71 64 66 66 67 61 74 66 96 99 100 99 96 85 69 77 78 63 54 52 62 55 48 48 43 54 61 60 59 59 58 62
83 87 84 83 86 84 90 91 96 98 99 99 65 70 71 66 62 57 60 66 89 79 77 97 98 95 66 74 66 68 61 60 64 66 58 52 51 50 64 67 67 63 64 66
83 90 82 83 89 88 84 73 83 89 100 95 89 70 78 72 70 72 63 76 80 83 75 96 96 92 80 76 80 83 60 66 73 77 53 51 50 47 63 66 66 67 66 65
85 84 84 82 91 90 80 85 83 79 91 89 99 70 66 80 87 79 78 82 83 82 88 92 96 88 99 99 94 62 46 47 46 54 55 56 59 64 67 64 67 68 66 65
87 88 86 85 90 90 79 91 99 98 98 98 95 93 77 91 79 82 95 97 92 86 83 99 94 89 93 100 99 53 48 47 50 53 57 70 71 68 68 67 68 68 68 65
86 88 80 80 81 81 88 89 94 84 94 99 100 94 83 99 89 85 80 85 88 84 80 84 93 78 84 95 85 68 51 54 59 63 62 63 69 72 75 74 73 71 68 68
86 76 70 78 88 90 92 90 96 98 98 99 98 100 98 100 99 98 77 78 94 77 92 87 93 100 98 84 85 77 66 64 64 70 70 74 78 78 77 75 75 75 76 80
84 74 79 86 95 97 89 100 100 98 99 99 98 80 97 100 99 99 99 98 99 100 88 91 94 93 71 74 78 74 67 67 66 71 78 77 78 78 78 80 82 87 91 93
79 68 77 91 91 75 93 98 97 99 99 98 98 96 96 98 100 100 99 92 96 99 98 96 99 98 90 84 80 77 77 75 74 73 76 79 78 79 84 94 98 99 99 97
83 82 85 95 97 89 98 96 97 98 95 100 98 99 100 98 100 99 100 98 98 97 99 100 99 94 84 85 87 88 85 82 79 78 80 87 96 99 100 100 100 100 100 91
85 78 70 88 90 88 99 94 97 100 99 100 99 99 99 100 100 99 100 100 99 88 100 96 89 87 83 81 82 83 83 82 88 99 100 95 90 99 99 100 100 99 99 99
74 73 92 91 94 83 93 96 90 98 100 99 99 99 99 99 100 98 100 94 96 100 98 86 84 81 80 83 83 82 84 91 100 100 93 79 88 99 97 96 74 71 78 89
77 67 92 94 75 88 96 98 99 98 100 100 98 100 100 100 100 100 99 99 97 89 85 97 88 82 81 83 85 84 88 100 99 87 61 94 67 49 46 45 50 54 61 65
82 81 98 80 91 80 95 95 95 93 98 99 100 100 99 99 100 99 96 98 94 99 99 85 83 83 84 84 84 86 83 86 92 99 98 73 37 37 36 35 36 42 50 59
92 94 76 74 91 93 85 95 86 91 95 94 98 98 99 99 98 98 91 98 99 97 84 78 84 85 82 80 84 94 74 49 52 67 48 29 24 21 21 19 20 26 37 46

GFSNW_850_rhum_060.txt.gz
RH
42 29 45 39 37 35 34 68 95 82 86 97 94 94 84 59 56 54 60 54 56 55 50 58 68 70 60 50 50 70 63 84 95 87 76 77 72 82 73 88 84 80 82 59
42 36 46 40 40 36 43 77 82 92 97 88 94 68 61 59 58 50 50 52 49 49 52 62 66 66 55 51 53 63 60 85 98 98 82 74 97 86 70 71 79 87 82 62
40 48 46 39 40 35 54 72 90 69 86 81 80 80 64 64 55 54 46 48 46 49 51 50 67 66 56 52 48 50 54 76 76 82 69 80 89 88 76 83 96 74 80 57
42 52 47 41 41 34 42 63 88 87 96 87 85 80 71 59 64 53 47 50 49 53 56 56 67 67 63 55 49 56 58 79 79 69 74 74 74 77 78 93 77 82 63 56
52 54 50 46 44 34 29 73 88 81 87 82 84 77 83 74 72 55 62 58 61 54 54 52 64 67 66 64 56 58 71 86 81 60 65 68 85 71 74 69 68 64 62 65
59 56 57 55 53 41 42 51 86 89 78 74 74 75 75 75 79 60 58 62 67 61 59 51 47 48 49 54 61 70 72 90 86 80 70 65 73 68 69 71 69 60 72 50
66 63 62 64 63 58 52 53 62 68 70 67 62 53 58 73 70 83 72 69 65 58 55 50 46 45 47 56 57 62 78 76 87 94 79 84 54 50 57 57 53 65 59 52
76 74 66 75 69 68 59 55 58 73 85 81 65 63 60 64 75 78 75 73 69 65 57 68 71 77 60 54 53 62 64 80 90 93 94 67 53 60 65 68 59 54 60 58
82 82 70 80 73 74 70 64 59 68 83 80 64 65 69 88 94 89 82 81 69 64 81 76 85 94 76 76 68 63 59 61 74 91 88 92 53 53 47 53 82 54 54 56
77 72 71 82 80 80 80 84 81 76 78 69 71 65 66 57 75 78 98 87 81 73 85 87 92 89 68 84 84 83 78 75 87 84 85 76 50 47 53 78 63 57 52 52
75 76 74 76 87 76 85 90 91 96 91 88 70 66 65 64 62 81 82 89 95 92 86 86 84 84 72 71 70 78 76 79 89 79 92 92 46 62 72 62 63 60 56 54
79 80 75 75 93 81 89 95 94 97 99 83 87 73 73 75 77 74 66 97 99 100 97 92 92 80 77 76 78 61 72 67 79 73 72 48 50 54 52 57 60 59 59 58
81 80 78 75 82 82 86 93 90 96 99 95 70 68 64 66 68 71 77 76 99 100 99 98 97 100 72 78 81 64 56 56 66 60 51 51 44 49 54 58 58 58 58 59
83 81 80 76 81 82 84 82 75 97 99 100 68 65 69 75 72 65 72 74 84 84 84 78 99 100 85 84 73 73 63 63 64 69 60 55 51 46 52 62 61 60 60 63
82 82 82 79 78 85 86 77 70 75 91 96 87 68 71 94 91 76 71 72 87 83 70 95 90 91 93 87 84 90 65 65 72 73 50 50 46 43 48 65 66 65 64 66
84 86 84 82 82 83 78 86 83 89 98 92 98 66 76 96 90 78 77 74 81 84 86 87 83 87 100 98 100 69 52 49 49 51 47 50 51 49 47 65 70 69 68 66
87 86 85 82 80 79 79 81 91 100 90 93 95 87 74 90 82 87 89 96 93 90 87 96 93 84 92 94 87 69 59 63 58 52 56 67 64 64 69 72 70 71 69 68
83 82 74 74 76 80 90 80 82 88 93 97 97 96 81 97 90 87 80 87 90 89 80 84 98 84 82 93 74 56 57 63 68 71 63 60 63 70 72 74 74 73 72 69
83 82 77 83 85 89 90 91 97 99 100 97 99 100 97 100 99 99 88 83 97 78 94 94 87 91 93 78 58 50 47 75 70 71 69 71 72 76 78 77 75 74 73 74
82 74 72 89 93 96 84 99 99 98 99 100 100 83 96 98 99 100 90 96 92 97 87 87 97 92 66 75 82 81 75 74 78 78 81 77 78 78 78 77 77 77 78 85
74 67 70 83 78 79 86 91 97 97 93 99 97 95 95 99 100 100 99 99 99 98 98 99 99 100 95 98 94 87 84 79 83 83 82 80 78 82 84 82 88 95 98 99
80 79 88 81 89 84 92 96 97 95 97 97 98 98 99 99 100 99 100 98 97 99 98 100 95 92 87 87 87 96 98 94 86 84 83 86 83 92 97 99 99 99 99 99
75 73 70 80 88 83 88 92 96 99 98 100 100 98 99 99 100 100 100 99 99 93 100 97 93 85 84 83 84 88 97 99 100 100 100 98 97 99 100 100 98 97 97 98
68 58 63 84 99 89 90 96 85 90 97 98 100 99 99 99 100 100 100 93 98 99 98 92 85 83 83 84 84 85 88 93 100 99 86 90 100 98 89 79 65 52 57 66
69 58 61 98 69 86 88 97 97 95 93 100 96 98 100 99 100 99 99 99 97 92 91 99 91 87 84 84 87 88 92 100 100 96 80 99 81 45 44 43 34 35 41 48
76 76 80 80 97 84 83 91 89 88 99 99 97 96 97 97 99 99 97 98 95 97 99 98 83 85 86 86 89 87 96 100 100 99 100 99 46 32 29 25 21 22 32 41
87 91 82 67 79 65 79 79 84 91 94 88 89 98 92 97 98 100 97 98 99 100 100 99 82 80 81 81 84 87 96 62 43 81 100 100 88 22 20 18 18 19 25 31

GFSNW_850_rhum_063.txt.gz
RH
59 44 43 40 38 36 38 69 95 86 94 91 96 90 82 63 58 59 59 58 58 56 58 68 70 75 64 56 72 74 70 80 90 92 78 78 81 81 83 90 85 86 84 69
62 44 44 38 38 38 44 75 81 86 88 94 96 74 64 62 58 52 51 54 52 51 55 69 68 67 56 52 59 71 71 91 98 100 85 78 98 90 76 74 82 90 87 71
60 47 43 38 39 36 66 72 87 66 79 80 82 87 72 64 57 55 48 50 48 51 53 58 71 67 57 54 51 52 53 80 76 82 69 84 98 88 83 80 98 77 79 63
47 50 42 40 41 33 59 64 94 88 94 82 82 83 77 69 65 54 50 51 54 56 58 59 71 69 63 56 53 62 60 80 82 71 73 76 80 83 90 94 77 86 63 66
50 49 42 40 42 36 37 49 70 76 83 86 87 80 86 83 84 61 62 60 67 60 55 55 68 70 66 60 57 62 69 82 78 58 66 70 86 70 87 85 77 78 74 66
54 49 43 43 44 44 45 53 72 86 78 70 81 78 72 78 77 64 67 72 70 61 62 56 51 52 52 55 63 73 70 88 84 78 80 64 70 67 69 76 74 73 84 60
59 49 46 50 51 55 54 61 64 60 66 66 68 56 55 66 64 84 72 71 68 64 58 54 49 49 56 60 60 64 77 76 83 91 78 89 55 45 57 64 54 67 62 56
62 52 50 55 57 62 59 53 58 67 77 84 66 64 66 72 76 81 81 74 77 71 59 68 72 77 59 57 59 69 63 80 92 93 95 69 48 61 64 65 59 55 62 57
60 52 54 61 64 66 66 65 64 68 74 77 68 67 71 87 93 89 89 87 78 72 76 73 85 87 75 75 70 65 63 63 73 93 89 92 50 54 50 54 80 55 57 59
58 58 61 63 68 70 72 76 73 78 80 71 73 66 65 60 68 76 89 94 84 78 85 81 88 88 70 83 84 86 81 80 89 81 88 75 56 47 54 79 59 66 60 56
62 64 62 66 76 73 79 89 90 88 87 86 86 70 83 74 68 79 79 92 98 94 84 82 84 88 78 76 72 78 83 87 94 82 87 90 48 59 71 62 61 60 59 54
67 69 69 74 76 73 82 87 88 93 96 89 89 69 68 70 82 82 71 92 99 99 99 93 94 86 83 79 80 66 72 70 79 78 74 48 44 57 54 56 60 60 62 61
72 74 78 80 79 78 81 81 81 93 89 91 70 70 68 68 70 75 76 83 98 99 99 97 98 94 80 83 86 68 60 59 67 64 53 55 43 42 46 51 58 59 58 60
76 76 80 78 77 78 76 68 66 93 96 97 63 62 78 85 76 70 73 76 86 82 73 78 97 99 91 89 82 80 66 64 66 70 60 52 46 47 43 44 57 61 60 61
78 81 80 78 80 76 74 65 73 81 89 97 82 72 75 89 89 80 75 84 85 82 73 90 87 84 94 87 92 95 70 66 73 72 50 50 44 41 44 48 54 63 64 62
82 83 82 78 79 74 68 79 84 97 98 99 98 68 84 89 86 81 83 82 85 81 80 84 75 72 96 93 88 73 59 60 61 61 51 52 49 48 49 48 56 70 68 69
84 85 80 73 75 73 68 75 88 99 84 96 90 85 70 87 85 85 82 84 88 88 88 95 91 83 86 88 89 54 49 57 64 67 67 65 56 61 58 56 71 76 73 70
84 82 76 73 75 79 78 80 88 91 90 97 94 95 77 99 94 89 86 92 94 89 84 87 98 88 86 95 64 41 41 54 54 65 77 75 67 65 71 74 75 74 73 73
87 85 77 79 83 82 87 88 93 96 94 92 93 96 97 93 99 99 92 87 97 82 95 94 88 91 89 75 61 83 88 75 59 71 76 75 72 69 78 78 78 76 76 75
91 82 77 91 87 86 86 99 94 92 94 97 98 90 95 94 98 98 93 88 92 97 85 84 96 91 72 76 86 94 86 85 85 91 85 82 77 80 83 83 81 80 78 79
86 70 72 86 80 82 80 91 91 95 88 93 96 95 96 97 98 99 99 98 99 99 99 96 98 90 90 96 95 100 100 90 89 92 91 91 82 82 84 84 84 87 95 99
76 74 78 82 84 79 81 98 95 85 96 99 99 98 99 99 100 97 97 99 99 93 98 100 97 82 84 83 81 80 89 100 97 91 92 99 100 100 98 97 100 100 100 100
81 74 69 84 88 86 87 94 99 92 98 100 95 96 97 97 100 99 100 100 97 98 100 94 94 84 83 85 84 85 89 99 100 100 100 100 100 100 100 100 100 100 89 79
70 56 75 79 98 95 90 92 90 86 86 88 99 98 98 98 100 100 100 92 100 99 100 94 95 92 86 83 85 86 90 96 100 99 98 99 99 98 90 72 61 48 44 48
71 58 65 95 67 83 74 84 88 87 93 89 89 88 98 94 97 99 99 99 98 94 92 98 100 90 88 84 86 88 93 98 99 99 99 99 98 79 50 43 35 28 34 44
78 75 69 82 91 82 93 99 97 87 92 95 91 97 98 87 97 98 99 98 95 95 100 100 100 99 86 84 86 87 88 100 99 99 99 99 95 53 25 24 20 20 28 34
89 87 80 64 63 54 56 64 67 84 96 96 79 88 85 96 98 97 97 98 99 100 100 100 99 93 85 85 78 82 88 96 67 58 99 99 99 96 38 20 19 21 24 26

GFSNW_850_rhum_066.txt.gz
RH
61 57 46 40 36 32 34 72 94 90 99 95 97 93 82 66 61 68 61 60 61 68 88 86 78 81 71 67 69 72 67 80 90 84 78 74 74 85 81 94 88 90 87 74
63 48 46 37 34 33 35 73 78 88 99 90 96 77 68 64 59 54 53 56 54 52 59 72 71 69 59 60 63 75 71 90 97 93 88 83 98 88 79 77 83 93 88 72
60 48 41 35 33 33 40 64 87 68 81 81 83 83 77 65 59 54 50 51 50 51 56 64 74 69 60 55 55 57 56 81 76 86 67 83 99 82 90 86 94 76 80 68
55 48 39 35 33 33 35 51 90 96 92 87 86 83 83 77 67 56 54 55 64 59 59 62 73 70 64 57 65 62 60 81 87 72 69 84 88 85 77 96 87 89 66 67
55 47 38 36 36 34 33 44 63 71 84 86 83 85 88 90 84 69 66 62 69 65 56 54 65 69 67 63 58 65 67 85 79 61 68 77 86 78 89 84 80 84 78 82
53 45 39 37 36 35 42 52 66 81 76 69 83 74 62 82 76 75 73 75 72 62 68 63 56 56 56 57 65 74 71 87 85 80 79 68 75 67 71 84 86 82 91 66
52 44 41 40 38 36 40 49 56 48 60 67 72 63 59 64 66 79 73 75 69 73 71 58 53 53 60 60 64 65 79 75 81 85 78 82 52 46 52 65 60 74 71 65
51 44 44 44 44 43 42 48 51 60 79 81 65 65 72 77 74 83 83 87 87 76 66 68 66 74 59 61 62 70 64 78 92 92 95 70 49 62 64 65 60 56 63 58
48 45 47 46 48 49 49 53 58 58 65 78 71 71 68 78 90 78 84 85 81 75 76 73 89 83 72 73 72 69 66 62 72 94 90 91 51 54 53 55 79 52 62 64
49 49 51 54 57 55 59 63 64 70 72 74 75 74 73 67 71 76 74 83 80 85 82 86 90 85 71 83 85 85 84 81 93 89 90 75 54 51 54 78 60 64 64 61
55 52 54 63 61 62 68 70 69 76 81 86 89 78 86 89 76 81 71 81 98 98 88 91 89 88 82 77 73 82 86 92 97 89 94 88 48 60 72 59 59 64 62 64
60 58 58 67 66 69 69 73 80 83 88 86 80 69 66 69 81 83 78 93 99 99 100 96 93 87 87 80 83 72 79 73 81 80 77 50 43 49 47 58 60 60 62 62
61 67 64 72 71 72 68 60 59 79 81 70 65 68 67 72 75 78 81 90 100 99 93 97 100 91 79 86 87 72 63 62 68 65 53 57 43 42 41 41 50 56 61 61
69 71 71 76 74 71 59 54 62 76 71 76 63 65 84 93 88 70 76 86 86 82 75 80 96 100 98 90 86 87 72 66 69 74 62 51 43 41 41 45 48 56 63 62
77 75 71 74 73 74 62 63 68 70 80 78 67 72 88 94 82 81 77 84 88 85 71 88 85 77 92 90 91 96 76 73 77 74 54 56 52 48 49 46 45 51 64 65
83 76 72 71 68 72 65 70 73 68 78 75 87 71 80 92 77 81 83 82 88 85 78 79 73 69 87 98 91 67 66 63 66 68 76 71 58 52 49 53 53 54 68 68
81 79 76 67 67 64 67 69 77 73 80 79 85 81 68 94 88 82 82 83 85 86 88 93 89 82 95 97 98 55 44 42 43 43 44 71 72 73 70 66 66 71 76 75
80 78 71 69 68 70 73 79 91 89 86 87 96 94 81 99 98 92 90 90 94 92 87 90 98 85 89 96 72 50 52 83 83 56 59 54 76 82 77 76 80 81 79 77
82 79 72 72 75 76 80 91 95 95 84 90 90 95 97 86 98 99 96 90 95 89 96 93 91 91 90 70 55 60 76 91 91 90 87 68 78 69 78 82 80 81 80 79
85 77 75 83 84 80 99 98 89 83 88 93 94 92 92 90 95 98 99 92 94 99 87 88 90 83 71 69 74 93 93 99 95 99 90 83 76 83 84 84 85 87 84 84
89 70 78 89 82 86 86 97 92 93 88 94 94 92 96 91 98 94 99 99 98 98 98 97 96 93 84 89 88 89 87 96 98 95 96 96 93 92 90 90 91 90 90 97
70 67 78 79 81 81 84 97 92 78 92 97 95 97 99 95 99 97 98 99 98 95 97 100 92 86 82 80 81 82 85 97 100 100 99 100 100 100 100 100 100 100 100 100
77 71 68 86 92 92 83 100 99 93 95 98 87 90 93 96 100 94 98 98 96 97 99 92 92 88 83 84 84 85 88 92 99 99 100 100 100 100 100 99 99 99 98 84
66 53 81 80 97 94 90 91 93 82 81 84 86 88 95 97 99 95 99 90 99 99 97 95 97 98 91 86 86 88 90 98 98 100 99 100 100 99 98 98 98 96 47 41
65 54 66 94 67 81 74 88 84 84 89 90 93 87 86 88 98 95 96 98 98 94 93 99 100 100 100 99 86 88 90 95 99 96 100 100 99 97 93 45 36 26 22 32
75 71 73 81 82 85 94 96 98 92 88 94 88 85 93 85 98 98 88 97 94 94 99 99 100 100 100 98 86 81 84 90 100 99 100 100 100 95 79 54 19 18 22 28
86 84 77 59 58 56 68 79 77 86 94 97 91 93 87 92 98 98 95 97 96 99 99 92 88 90 84 82 81 74 74 86 93 69 87 99 99 100 85 40 21 18 19 24

GFSNW_850_rhum_069.txt.gz
RH
54 56 49 41 36 33 33 67 98 96 100 94 98 96 81 69 66 73 65 61 61 79 89 91 83 80 73 72 63 69 66 79 94 83 75 77 79 83 78 88 85 87 78 67
55 54 44 37 34 32 36 65 79 93 99 92 96 77 70 67 61 56 55 58 54 51 70 75 72 72 61 68 66 74 70 88 93 94 79 82 91 90 80 78 81 95 88 68
57 48 41 34 33 32 37 56 85 73 85 84 86 84 82 68 60 57 52 55 54 51 57 68 74 70 65 59 59 62 59 79 76 82 68 84 96 93 86 80 90 73 75 62
57 47 38 34 32 32 34 47 81 85 92 86 87 84 84 83 77 61 57 57 68 61 63 64 73 71 65 59 65 62 64 82 87 69 68 86 88 84 86 97 77 86 68 68
54 45 36 34 32 33 34 38 63 72 85 87 85 82 89 88 82 80 69 65 69 65 58 57 71 71 67 64 60 65 66 87 78 66 72 81 88 81 87 81 74 73 76 86
53 44 36 34 32 33 37 46 52 69 75 70 85 72 59 78 71 80 75 82 76 68 78 74 64 59 58 59 65 73 74 84 84 82 78 66 68 67 78 84 83 74 86 67
50 41 36 35 34 32 33 41 45 49 64 70 73 63 60 64 68 74 70 80 72 83 80 68 58 57 63 60 72 64 80 74 76 84 75 86 53 48 55 68 64 81 78 70
48 40 37 36 36 36 38 39 44 49 83 75 65 66 75 73 68 84 87 92 91 83 71 66 67 73 59 65 70 70 65 76 92 88 90 68 52 63 66 66 59 58 65 60
44 40 39 39 38 41 44 43 46 49 68 85 71 69 65 76 83 66 73 83 81 79 74 79 91 84 72 73 75 74 69 68 72 92 91 88 52 54 55 54 79 53 64 69
44 41 41 41 42 46 44 44 50 59 74 82 73 75 77 71 76 77 73 64 85 88 88 98 92 83 71 83 85 87 83 82 92 89 90 79 55 49 54 77 57 55 67 66
45 40 42 41 48 48 44 46 47 54 78 90 81 74 73 77 77 81 69 87 91 99 100 94 90 85 85 79 72 83 88 94 98 92 97 90 51 65 70 54 57 60 64 64
45 41 43 46 52 51 46 49 46 57 63 78 75 65 67 74 76 77 80 94 99 98 100 97 94 87 87 83 84 74 82 74 82 82 78 50 44 47 46 50 53 54 59 63
45 45 43 50 51 52 44 52 49 51 66 70 66 65 80 75 76 77 74 88 98 99 93 98 100 86 81 88 88 74 66 65 72 64 52 59 48 45 44 49 48 47 55 63
50 49 45 58 54 47 48 55 55 53 50 60 64 80 86 89 87 75 74 87 86 81 76 78 98 97 99 94 87 91 75 69 72 76 63 51 45 50 51 51 50 52 58 64
57 56 49 62 58 50 53 52 59 61 60 64 66 76 87 84 74 79 74 80 84 85 71 87 82 83 91 89 94 99 81 78 80 81 66 72 67 65 61 58 51 56 59 65
65 68 55 66 62 57 54 55 55 59 58 55 86 77 83 88 75 81 79 81 87 86 80 77 75 74 93 92 92 68 70 74 69 72 65 56 54 67 72 65 58 55 60 71
82 72 67 70 60 63 62 65 59 63 62 60 79 78 73 100 93 82 84 84 83 83 88 92 90 82 90 95 97 56 56 48 66 71 76 65 45 50 83 80 78 77 75 79
83 75 75 64 65 66 71 78 80 71 64 69 94 91 88 95 100 94 94 91 95 94 90 91 96 82 91 98 75 52 49 74 78 79 84 91 89 70 82 83 82 83 84 83
76 74 69 64 66 71 83 92 88 76 69 88 90 96 93 84 93 100 97 93 94 92 97 95 88 88 93 69 52 60 77 90 98 92 80 84 76 60 77 76 82 92 88 87
74 68 62 77 80 84 89 89 80 79 85 84 88 90 92 84 91 98 99 96 93 100 86 92 92 80 69 69 77 87 84 91 100 99 96 98 99 100 96 92 96 95 98 97
71 72 88 82 84 83 87 97 88 94 88 93 92 86 97 87 95 92 99 98 97 98 97 95 96 90 85 84 82 85 83 88 100 100 100 100 100 100 99 99 100 99 100 100
63 61 78 79 79 85 85 97 89 84 93 95 82 89 81 90 97 98 97 100 99 96 98 98 94 86 84 82 83 84 87 90 98 100 100 100 100 100 100 100 100 100 100 99
65 60 76 76 96 94 83 100 97 93 92 98 93 86 80 95 99 99 100 97 95 99 97 90 95 92 94 92 84 85 88 92 96 99 99 100 100 99 99 99 99 98 98 91
56 53 91 85 97 93 89 90 91 80 89 81 77 80 77 94 99 98 99 88 100 98 97 94 96 99 99 100 100 99 96 93 98 97 100 100 100 98 98 97 93 85 94 97
59 48 80 88 71 82 72 98 91 83 82 84 94 84 79 88 97 96 97 98 92 93 93 97 99 98 99 99 100 98 88 88 96 99 100 100 100 100 97 44 36 65 34 32
68 66 80 88 78 99 99 98 91 89 90 87 83 86 87 81 97 98 82 85 96 89 98 96 92 92 87 83 83 85 82 82 94 100 91 100 100 99 89 56 30 22 22 25
84 87 64 58 55 71 83 94 89 88 93 99 94 100 92 90 98 98 87 92 92 97 100 85 94 84 73 65 61 57 70 82 80 91 74 95 99 99 98 93 41 25 21 22

GFSNW_850_rhum_075.txt.gz
RH
88 63 52 51 42 35 50 97 80 97 93 98 89 85 59 60 55 60 54 51 51 51 51 51 52 70 56 54 46 52 45 56 83 66 58 54 61 48 40 57 56 48 55 38
82 59 51 46 37 34 68 73 94 97 100 85 83 57 57 56 53 50 50 49 48 46 50 55 51 54 57 62 48 46 44 67 89 78 59 56 65 48 46 40 65 79 53 34
79 56 49 41 34 33 46 70 84 93 100 79 60 54 53 58 58 47 46 44 44 44 48 47 56 54 56 63 52 56 47 49 60 62 57 49 69 50 48 64 83 54 49 38
71 52 46 38 32 33 48 58 45 73 85 62 55 58 54 54 57 50 47 48 46 42 50 48 53 52 55 57 64 51 50 96 86 50 56 64 68 60 54 72 68 71 46 40
67 50 42 34 31 33 48 49 48 58 60 62 55 68 61 55 63 56 52 47 50 44 46 49 52 50 48 51 52 52 51 87 70 65 57 61 73 57 52 53 54 57 49 47
62 50 40 31 30 34 44 36 40 47 60 52 51 49 56 61 60 63 63 58 47 51 68 66 56 51 47 45 50 53 61 68 77 73 56 55 60 47 49 51 48 48 57 42
54 48 37 30 30 31 32 32 43 44 46 41 46 51 56 58 61 62 67 67 52 78 78 71 60 49 47 45 48 49 63 79 90 83 66 80 45 38 38 40 39 37 41 40
52 44 34 30 28 31 34 33 34 36 41 42 50 50 51 56 60 65 74 86 78 84 68 53 57 55 55 52 49 48 48 62 74 78 62 44 37 42 45 46 40 36 38 36
52 40 33 29 29 31 34 33 32 46 42 44 48 48 50 47 50 58 65 73 78 82 64 59 61 59 47 59 62 52 48 46 62 63 70 59 42 42 40 41 49 41 45 48
52 37 32 30 30 31 35 32 33 51 52 67 52 43 45 53 44 43 58 65 80 85 74 91 67 55 44 52 55 67 64 61 70 66 72 49 33 40 44 54 49 44 51 52
50 36 32 30 30 31 30 31 34 51 62 80 73 73 61 60 55 43 61 73 79 85 90 80 71 52 47 48 42 51 56 63 66 63 89 72 40 43 47 47 46 48 48 49
46 36 32 32 30 29 29 28 35 46 66 84 63 58 57 65 71 61 71 85 92 90 84 84 69 53 52 46 52 50 56 44 52 46 49 42 42 43 45 47 47 49 55 53
43 36 33 33 31 30 27 28 36 37 68 73 69 76 69 63 63 66 62 80 98 99 97 90 84 73 59 51 47 51 47 48 51 49 36 38 40 44 50 56 58 62 63 63
41 37 36 34 30 32 26 28 34 51 66 59 78 87 91 79 68 63 71 79 86 88 84 72 74 74 83 61 66 61 50 51 49 48 41 40 46 51 57 60 66 67 64 64
43 40 38 38 33 31 28 31 39 45 71 67 79 88 83 75 73 65 74 84 81 78 66 60 63 67 66 57 64 62 50 48 53 50 54 58 49 58 60 58 59 76 78 65
45 43 43 38 40 32 34 34 36 46 56 77 85 87 93 84 82 84 90 89 87 85 69 62 61 67 69 69 58 44 53 64 54 55 60 63 62 63 64 67 80 88 81 81
50 48 46 43 43 33 41 61 49 52 53 75 89 85 95 92 91 92 93 90 90 79 77 69 69 67 71 64 61 43 50 47 56 68 79 69 66 74 81 87 83 87 89 88
57 51 45 43 46 45 52 56 54 51 48 56 92 92 89 91 92 94 94 89 90 85 76 78 68 68 69 71 48 48 50 64 71 78 84 89 96 98 96 88 90 91 84 88
56 54 48 46 43 47 59 58 54 49 57 80 80 91 90 90 93 99 99 92 77 93 72 70 71 59 74 54 45 47 64 75 81 90 92 96 100 99 99 92 91 95 89 82
56 51 45 63 63 65 63 58 60 62 66 73 74 78 78 83 86 98 86 87 73 85 72 84 77 72 59 60 68 84 89 91 92 96 95 98 99 99 99 99 99 100 100 100
52 48 90 98 82 75 80 88 80 84 85 78 82 75 77 87 71 74 88 83 82 80 81 79 77 71 62 83 76 72 77 83 96 99 99 100 100 100 100 100 100 100 100 100
47 45 86 82 77 83 82 84 86 83 76 90 76 77 77 88 91 78 91 90 91 82 84 83 72 54 75 75 78 85 85 87 93 99 97 97 99 100 100 100 100 100 99 99
43 46 64 83 93 87 80 85 86 89 86 95 83 83 79 91 96 82 81 95 83 96 87 71 56 78 84 84 83 90 95 98 97 98 95 94 97 99 99 99 98 97 94 97
41 57 82 85 86 77 78 80 87 92 96 93 83 77 73 78 84 77 88 76 81 83 79 71 51 74 87 76 83 96 94 96 88 86 94 97 99 98 99 98 98 68 90 81
48 58 74 82 92 97 98 99 99 96 86 85 84 80 69 79 89 79 86 91 84 66 72 65 78 75 74 89 94 91 89 84 78 80 83 91 95 98 96 98 98 82 49 62
60 70 85 85 87 100 100 100 100 92 88 75 82 79 80 81 76 84 82 69 74 73 85 90 80 78 86 84 80 88 72 68 68 60 54 73 88 92 99 97 98 95 71 55
85 94 79 85 82 93 96 90 84 85 76 82 83 83 77 80 83 80 68 77 79 76 81 78 74 68 68 64 70 71 71 68 55 45 44 47 76 95 92 97 98 98 87 63

GFSNW_850_rhum_078.txt.gz
RH
100 100 94 60 51 43 50 92 96 94 88 99 86 88 67 55 53 55 54 52 53 50 50 54 52 66 55 49 44 55 54 74 94 85 66 60 64 58 54 87 70 69 73 58
100 100 86 56 50 39 62 85 99 94 87 94 92 64 55 53 54 52 50 50 47 47 50 62 55 58 58 50 47 51 47 76 98 88 64 61 70 61 59 55 75 80 83 56
100 100 84 54 48 37 48 74 94 100 100 87 80 59 58 60 58 46 44 44 44 46 51 46 59 64 58 59 51 52 54 59 71 89 65 66 78 60 54 72 94 71 69 50
96 99 79 54 45 36 58 70 69 79 92 84 67 51 49 54 59 51 45 49 47 44 53 51 56 59 65 60 60 53 58 94 78 53 55 69 64 61 56 74 67 82 59 50
97 96 72 53 42 38 48 55 58 72 55 54 60 61 62 52 61 53 51 53 46 45 56 57 60 52 55 61 63 58 58 94 75 72 54 60 72 66 61 58 57 62 61 63
100 88 59 50 40 36 43 49 47 46 56 57 59 61 56 52 59 60 60 52 49 52 72 68 56 50 46 47 55 61 67 80 89 85 58 60 77 63 64 58 54 55 69 55
100 80 54 48 37 34 40 35 39 50 56 53 53 50 58 59 60 62 68 64 56 76 70 67 62 48 46 45 48 50 67 80 94 94 73 95 55 41 43 50 48 49 45 45
99 64 51 44 35 36 37 33 36 40 50 49 51 52 59 59 67 70 67 78 75 79 67 60 62 62 58 54 48 49 60 74 97 98 96 65 47 44 45 49 45 39 39 39
87 61 53 39 34 37 36 35 34 40 48 53 48 53 56 63 66 68 68 73 76 79 72 66 70 80 56 70 70 52 50 54 80 91 86 75 57 46 39 40 60 47 46 52
70 62 48 36 34 35 38 37 38 46 60 58 51 51 54 48 45 64 62 70 78 77 68 80 84 65 51 67 61 76 72 66 84 83 84 71 48 44 43 59 70 48 50 50
65 57 46 34 34 37 40 38 43 46 70 76 67 61 57 53 51 58 66 81 83 86 87 85 80 67 57 49 43 55 66 78 80 74 88 89 42 45 51 57 45 47 52 53
60 54 39 36 36 37 40 39 45 39 55 84 61 59 62 61 70 60 76 86 87 93 93 93 84 66 59 52 62 51 66 58 69 59 68 42 41 46 46 49 52 60 62 62
61 46 37 37 37 42 36 37 45 34 65 73 71 80 66 56 58 67 69 82 88 96 91 86 80 73 78 66 60 52 48 48 62 55 47 44 42 45 55 60 64 66 65 61
60 43 38 37 37 39 32 31 32 43 58 70 85 87 75 63 55 57 75 77 87 82 84 74 82 75 79 79 80 75 61 55 55 57 48 47 54 60 60 60 58 56 65 63
57 41 37 38 39 33 32 31 42 47 57 80 86 84 83 69 58 67 77 79 78 76 70 74 78 69 73 67 70 77 54 62 71 73 61 64 60 58 54 61 65 72 80 69
56 41 35 38 39 36 32 34 40 47 48 65 86 92 93 87 74 79 83 78 77 81 74 69 62 65 72 83 74 47 48 56 54 52 56 65 63 70 69 76 77 78 82 85
48 45 40 42 45 38 37 47 45 48 52 62 93 92 91 92 89 90 87 88 85 81 77 74 70 68 67 76 82 51 48 50 60 70 76 74 78 88 86 94 93 78 83 87
49 51 42 43 46 42 37 43 55 48 47 64 92 96 93 87 91 90 90 88 85 80 78 77 75 74 73 89 59 49 48 64 70 74 81 89 91 98 90 97 92 94 94 94
52 53 54 49 47 40 49 54 52 46 57 85 88 88 89 85 97 95 95 85 84 91 79 71 74 75 90 72 52 41 61 72 76 83 85 88 92 97 98 99 99 100 99 98
56 58 44 49 50 50 55 51 47 50 58 72 90 75 91 86 74 89 85 87 80 82 76 82 78 81 61 56 53 58 77 77 76 86 91 98 99 99 99 100 99 100 100 100
57 58 97 81 64 56 58 74 82 80 91 77 82 76 91 83 80 82 81 82 88 78 88 83 71 91 69 66 70 75 74 74 80 89 100 98 100 100 100 99 100 99 99 99
46 48 80 77 68 74 85 93 90 92 89 87 84 80 78 90 77 69 81 91 87 79 84 81 86 70 63 72 75 76 81 85 88 92 100 99 99 100 99 98 96 97 98 98
41 56 70 76 91 93 81 90 93 98 87 84 83 95 86 90 87 73 81 91 82 86 90 78 84 76 75 76 79 84 90 93 96 96 97 89 98 96 96 95 97 93 94 96
46 56 80 87 95 89 89 90 90 92 91 87 80 77 79 78 84 74 83 69 83 80 92 88 79 76 80 78 74 91 93 86 86 83 84 84 87 89 90 95 94 96 94 91
48 61 80 92 96 96 100 98 97 95 90 79 81 79 74 91 92 89 92 91 87 83 86 93 80 76 74 76 69 64 74 81 72 66 67 65 64 84 97 96 97 98 93 58
55 71 90 88 92 99 100 99 99 91 76 68 70 92 93 92 93 96 93 89 88 86 94 86 78 73 73 67 53 58 73 73 68 67 56 46 44 82 99 100 98 99 99 96
82 95 80 88 87 96 98 98 91 74 56 96 90 88 86 92 95 91 85 89 91 81 65 69 61 72 67 58 54 57 65 64 54 48 42 46 50 55 94 100 99 100 99 100

GFSNW_850_rhum_084.txt.gz
RH
99 100 83 99 100 99 86 82 97 100 88 94 88 87 74 66 62 59 58 58 60 49 61 71 76 85 70 58 50 62 72 79 97 84 72 68 70 70 65 83 69 84 80 56
100 100 97 100 100 89 72 98 98 100 94 98 92 73 85 66 67 66 66 62 53 56 58 69 73 73 63 53 55 60 65 83 96 88 70 66 76 68 66 69 77 82 73 54
100 99 99 100 98 88 60 82 98 100 100 100 85 95 82 74 58 61 54 51 49 54 63 57 74 76 69 60 61 55 57 77 73 83 70 76 85 74 71 73 90 74 73 51
99 99 97 99 98 83 57 78 96 90 95 95 86 86 75 78 73 55 49 53 53 55 67 64 79 75 71 65 60 57 66 85 78 62 69 73 72 69 77 83 72 79 60 62
99 100 97 99 99 82 61 79 87 88 87 78 84 86 85 76 66 62 60 60 56 62 68 67 73 75 73 68 64 61 70 94 71 67 61 66 71 66 71 72 67 71 68 68
100 100 100 100 95 84 69 65 73 58 86 95 89 93 77 69 72 72 62 56 75 78 78 67 62 55 54 64 70 72 74 84 89 89 70 66 73 65 70 68 66 62 75 54
99 98 98 100 92 94 66 54 63 54 87 89 77 72 66 73 66 81 79 66 73 76 64 60 54 50 53 57 61 62 80 90 93 96 78 93 57 44 51 66 60 59 59 50
100 94 100 99 92 87 52 48 43 43 80 68 68 74 84 80 78 83 80 74 74 66 62 72 73 77 64 63 66 64 76 94 92 99 95 71 58 45 46 46 61 63 53 52
97 92 100 100 92 76 51 46 41 43 64 68 67 75 75 87 91 84 78 85 80 74 81 75 82 94 78 84 72 67 74 81 80 98 96 87 54 48 44 40 71 64 64 66
98 100 100 97 88 74 54 51 45 43 62 74 65 73 70 71 81 91 77 81 75 73 87 92 88 78 69 91 89 85 81 81 96 96 91 78 55 46 43 55 57 60 60 62
96 100 100 91 86 64 60 48 45 39 70 86 66 59 57 61 68 88 77 76 76 85 81 82 86 87 74 72 73 82 84 88 93 89 93 90 49 46 51 53 63 62 60 60
98 100 99 87 77 61 58 49 51 39 51 89 76 71 65 63 64 76 84 79 88 80 93 91 91 83 79 69 85 63 71 68 77 78 77 52 51 52 56 53 61 64 63 63
99 100 84 70 62 61 53 54 49 39 67 68 65 71 69 70 67 71 72 80 82 84 79 84 93 79 87 78 76 68 60 60 69 61 58 64 62 63 61 60 58 57 58 59
100 73 66 68 56 54 48 50 44 39 46 81 91 72 66 70 65 62 57 61 74 78 75 79 94 87 87 88 80 81 68 61 69 72 76 68 66 63 60 59 60 60 64 67
95 77 63 60 55 49 50 52 41 37 44 90 90 77 78 74 66 66 69 71 76 68 69 86 88 86 82 86 82 87 70 72 77 78 67 70 69 69 70 71 71 74 81 79
66 54 60 56 48 50 50 43 49 50 39 66 95 88 87 76 68 70 71 70 65 67 68 80 71 67 78 89 89 66 64 62 59 62 58 62 70 74 76 74 78 88 91 90
64 53 54 56 54 55 52 48 54 47 55 62 93 86 91 83 72 70 65 62 67 63 75 82 78 73 68 88 91 61 54 50 54 57 65 75 80 78 83 84 95 95 97 96
84 68 60 54 67 56 59 67 55 62 61 69 90 97 92 90 88 89 83 73 71 77 83 79 80 80 80 90 70 58 52 60 66 74 77 77 83 90 92 98 98 96 99 98
84 72 64 50 52 46 61 59 55 61 60 84 84 93 97 96 96 92 84 82 96 84 88 83 78 84 91 67 57 58 54 52 69 78 80 79 87 95 98 98 97 99 99 95
76 71 69 65 49 51 54 50 47 52 64 78 86 83 94 85 88 81 81 87 93 93 86 79 81 92 65 59 59 54 54 53 73 75 77 85 89 98 98 98 98 97 100 100
64 52 61 67 54 52 52 56 63 71 89 85 87 80 93 82 88 94 76 91 86 94 87 90 96 94 76 56 59 49 50 55 72 70 77 84 92 98 97 97 98 97 98 100
48 43 73 56 70 72 80 90 86 88 87 95 91 86 82 85 70 78 87 88 81 92 85 80 92 77 58 62 59 58 62 70 70 76 82 87 86 93 100 99 99 97 99 100
42 51 70 85 92 87 84 80 88 99 93 91 93 99 85 79 68 70 82 81 88 84 85 84 86 65 70 67 65 72 72 72 76 79 82 81 78 72 65 59 66 96 100 100
41 59 93 85 92 90 80 79 87 76 80 87 76 96 87 76 82 71 85 77 83 79 88 91 84 58 69 71 72 71 69 71 72 65 68 67 64 62 60 60 56 65 98 100
44 48 66 97 74 98 98 95 89 90 83 67 78 84 80 97 84 92 82 83 82 83 87 88 64 67 70 70 71 70 56 49 52 58 58 58 61 56 45 48 59 67 80 98
55 75 95 100 94 100 100 93 94 87 64 50 56 96 93 99 94 98 100 90 93 82 91 75 72 71 70 72 72 66 56 54 56 60 62 63 54 48 41 46 55 68 82 96
80 93 81 81 82 97 98 96 87 68 46 89 87 72 70 94 99 97 90 91 86 60 80 77 73 68 66 70 72 69 62 58 58 60 62 62 57 54 41 41 51 58 72 87

GFSNW_850_rhum_087.txt.gz
RH
89 95 97 98 98 92 100 100 100 98 95 94 92 96 73 69 66 63 61 70 75 67 77 76 84 86 81 60 54 68 71 83 96 82 72 71 72 68 65 80 72 87 77 57
87 92 100 99 100 89 100 100 100 100 98 98 99 70 81 77 70 67 68 65 60 57 65 86 73 77 66 56 58 68 64 83 94 80 66 66 75 71 70 72 77 84 77 57
94 99 100 100 95 100 97 98 99 100 100 96 79 93 92 74 62 66 62 58 52 61 67 66 81 79 71 63 59 59 59 78 72 83 64 74 86 76 74 74 88 75 73 53
94 100 100 99 86 98 94 94 97 90 97 93 91 87 80 62 76 59 55 55 56 64 74 75 85 79 74 67 61 64 63 84 81 67 75 74 74 70 80 84 70 78 61 63
99 99 100 99 100 98 95 95 94 90 84 82 81 88 91 72 69 64 63 63 58 56 69 66 82 81 75 69 64 64 72 92 71 72 68 71 70 65 70 75 72 73 68 68
97 98 98 100 98 99 98 88 84 68 79 82 79 84 89 76 76 77 60 61 73 71 71 62 61 58 62 64 70 73 74 86 89 88 76 66 71 64 68 69 69 66 79 62
99 100 87 99 99 100 88 83 67 73 97 85 79 84 86 77 68 83 78 66 69 73 62 58 52 53 62 62 74 66 79 89 91 96 77 90 57 47 53 64 62 62 64 56
100 100 82 99 100 100 85 75 51 57 96 83 83 80 89 84 82 86 80 76 75 62 59 72 75 80 64 68 73 73 79 90 89 98 95 70 58 48 49 57 62 65 60 55
100 90 98 100 99 96 77 55 46 50 71 82 78 84 77 90 91 86 83 90 78 69 82 74 87 92 76 84 74 77 81 77 76 90 98 85 55 50 46 41 65 64 70 68
99 97 98 100 99 91 63 54 45 41 73 83 73 82 80 76 82 93 82 82 76 69 86 91 88 82 73 91 90 77 90 90 93 90 94 77 58 49 44 57 54 62 61 60
92 100 100 100 97 75 67 56 44 39 76 91 74 62 65 75 72 89 79 76 74 81 82 80 88 84 83 81 76 82 82 91 96 92 96 87 52 46 49 51 64 64 66 66
84 100 100 99 96 66 66 52 44 45 54 88 81 76 72 68 66 73 88 78 83 73 91 90 89 84 82 77 82 70 76 72 80 80 76 57 56 54 59 62 64 66 65 66
88 100 99 100 94 82 78 54 44 40 69 73 70 74 75 73 73 73 70 79 78 80 72 85 91 77 81 79 76 70 63 65 73 66 62 70 67 64 61 61 60 59 61 63
93 100 98 100 96 92 77 54 43 42 50 82 89 72 71 71 67 64 60 60 69 73 72 80 94 88 88 86 77 79 68 64 72 73 77 70 66 63 61 61 62 63 63 65
100 99 90 74 76 83 77 57 43 38 39 90 83 73 78 76 72 58 59 70 70 67 70 86 88 90 85 89 85 89 74 73 77 75 64 68 68 66 65 65 66 69 71 70
95 79 73 64 73 84 76 53 49 45 38 52 97 82 81 75 77 74 76 73 64 63 67 83 76 73 79 90 90 67 66 65 60 60 66 61 65 67 68 69 70 74 83 92
76 68 76 63 59 64 53 49 55 47 51 53 94 95 80 73 66 66 64 62 60 59 77 82 77 74 72 87 90 58 60 59 58 58 60 71 73 70 76 78 86 98 100 99
60 63 60 61 60 51 59 62 60 55 55 66 92 97 87 84 81 81 72 64 64 73 82 82 80 81 79 85 66 61 56 58 60 63 66 67 72 78 83 90 94 99 97 92
71 65 64 62 55 59 73 64 61 59 57 83 85 96 96 92 93 89 83 80 93 83 88 86 76 84 88 63 55 59 54 56 54 74 79 78 78 83 88 95 98 98 98 96
67 57 52 47 48 64 58 56 53 57 72 77 90 86 96 88 90 88 84 90 95 96 86 86 92 92 62 54 49 49 52 55 67 82 84 78 81 88 94 98 98 97 98 96
78 64 60 54 60 53 52 59 68 74 90 87 86 82 93 88 89 95 79 95 95 96 87 91 98 96 77 56 55 54 54 54 58 74 71 73 79 84 98 98 97 96 96 96
69 52 56 58 62 65 72 87 86 86 80 98 91 86 78 84 72 83 93 90 90 94 82 82 96 80 58 62 57 50 52 53 65 72 72 77 79 80 76 75 71 69 82 98
61 55 60 81 82 83 70 76 85 98 98 94 95 98 80 77 68 82 87 86 91 85 85 87 88 63 66 63 57 54 58 67 71 73 77 79 78 76 71 64 62 66 61 63
59 61 65 76 91 90 82 79 85 74 82 92 82 100 84 75 82 85 85 79 89 87 93 89 80 57 66 62 60 62 69 70 72 75 74 68 66 59 57 55 53 58 59 64
54 49 61 93 75 96 94 87 88 85 83 71 82 88 82 97 88 88 91 87 95 85 87 87 58 55 64 66 68 68 70 68 53 52 52 56 59 59 54 50 45 45 52 64
59 65 92 97 93 98 99 92 96 81 64 54 55 95 96 100 89 97 99 89 90 79 91 60 69 66 68 66 66 69 68 55 55 55 57 61 64 66 57 53 51 41 50 54
87 90 81 79 86 92 97 90 84 68 53 85 85 61 66 94 100 95 89 90 83 55 62 77 74 67 66 66 66 69 70 65 54 55 59 63 68 68 66 62 59 49 42 47

GFSNW_850_rhum_090.txt.gz
RH
78 82 80 80 86 98 98 100 100 100 98 100 98 97 74 65 71 69 65 69 71 80 83 88 91 84 78 63 62 76 66 83 99 88 76 74 76 72 65 79 72 87 78 57
83 85 86 88 93 99 99 98 98 100 100 99 98 76 76 76 74 71 70 70 66 56 72 82 78 78 68 61 60 76 66 82 93 83 68 65 76 73 72 72 76 84 77 61
85 87 90 97 100 97 100 97 99 100 100 97 88 92 89 90 70 69 65 60 56 65 69 76 84 82 73 64 62 61 58 78 71 87 66 76 85 79 70 74 86 74 70 53
93 83 97 100 100 98 87 99 99 98 98 98 86 86 85 79 79 64 54 58 58 68 77 77 86 82 73 66 62 68 64 86 83 78 80 75 73 72 80 84 69 76 60 62
84 96 98 100 99 89 86 96 97 95 90 80 89 84 88 70 72 71 67 64 60 57 72 69 84 82 74 66 65 69 73 95 71 76 72 69 68 69 74 79 75 73 68 69
95 99 100 100 76 87 97 91 94 81 95 84 83 94 87 64 76 77 60 60 70 67 67 62 62 64 67 65 66 76 76 84 88 87 78 68 68 62 70 71 71 70 81 67
98 100 100 100 99 100 95 83 80 75 92 77 70 86 82 80 67 81 78 65 66 71 60 55 56 62 64 70 83 67 78 87 90 95 76 80 54 50 54 64 60 64 66 62
100 95 83 96 100 97 97 88 68 73 86 75 81 84 90 86 82 86 83 80 77 65 58 73 75 79 64 72 86 84 76 87 90 96 97 66 56 54 51 58 52 64 67 61
100 95 98 100 100 99 94 73 65 65 84 89 86 89 83 90 91 88 92 90 76 66 78 75 84 88 73 85 77 75 78 76 80 71 99 78 52 51 47 42 61 69 69 70
100 100 96 98 99 97 93 57 50 56 81 89 83 86 82 77 83 95 89 82 74 66 83 89 86 82 72 88 88 72 88 86 90 75 75 80 58 50 43 56 55 65 64 66
93 96 100 100 100 93 76 56 44 53 80 94 78 70 74 76 74 88 82 76 73 79 82 78 87 83 84 82 77 80 80 91 97 91 93 88 54 49 49 51 67 65 64 65
81 92 99 99 98 94 64 50 55 60 61 88 84 83 77 73 70 74 84 74 80 71 91 90 90 86 83 81 86 74 82 76 84 81 77 58 61 57 61 64 64 67 65 66
91 94 99 100 96 78 56 51 49 54 71 74 71 77 80 81 75 70 67 76 74 71 67 83 89 75 79 82 81 74 68 68 76 68 64 65 67 66 63 63 61 62 65 66
98 100 99 99 95 68 55 48 47 50 54 77 83 76 76 75 73 66 62 56 63 66 68 79 93 84 88 83 73 78 72 72 76 74 73 72 67 64 62 63 63 64 64 65
100 97 99 98 99 82 62 53 44 41 38 84 77 74 80 79 67 57 60 66 65 66 70 83 85 91 87 92 87 90 76 76 78 76 59 62 64 63 65 67 67 67 65 63
100 94 95 98 90 78 65 58 46 40 42 48 94 77 79 78 78 75 76 72 64 61 67 84 81 78 80 89 88 65 66 63 57 58 60 62 63 67 70 69 66 65 70 77
100 89 80 68 78 69 63 60 54 42 41 45 94 92 75 72 69 69 65 62 59 58 75 80 76 78 78 87 88 52 60 64 62 59 62 69 67 64 65 69 72 78 84 94
81 76 64 64 72 68 69 72 57 58 50 55 96 96 82 74 71 70 61 58 60 68 81 83 80 80 78 83 65 57 62 63 62 63 63 57 58 69 76 79 84 86 93 98
71 65 73 70 63 62 68 71 72 62 55 78 85 94 93 87 89 82 77 73 86 82 86 84 76 82 86 61 53 56 60 59 57 65 68 72 73 75 79 85 91 93 98 98
66 68 71 57 51 62 64 67 65 61 76 73 92 85 96 88 91 94 85 91 93 94 84 88 93 89 58 46 46 42 55 55 55 71 83 78 76 76 82 84 89 100 99 98
69 66 68 61 67 66 57 64 70 76 93 84 87 84 92 89 90 95 82 95 96 96 87 88 97 96 78 58 49 45 52 54 52 60 70 69 70 74 79 81 74 74 73 78
75 74 66 69 60 68 71 85 86 92 79 98 92 86 77 83 75 87 94 91 91 90 88 92 97 78 57 63 53 52 52 54 57 60 71 71 73 76 74 69 63 58 57 56
94 74 69 78 81 76 73 75 87 99 99 95 96 98 82 83 72 92 87 88 92 85 86 88 86 61 58 61 56 54 55 56 54 61 70 71 74 74 68 62 59 59 52 52
100 99 88 89 93 87 80 77 84 68 83 93 89 99 84 76 85 86 86 80 89 91 97 83 73 57 62 62 57 51 52 53 65 70 71 69 65 64 62 57 57 55 47 44
99 93 83 92 71 90 89 80 85 88 83 74 84 89 80 97 92 87 91 91 97 87 78 81 52 51 63 60 58 58 64 69 70 66 54 52 56 60 58 58 58 57 56 49
94 78 85 96 88 98 100 94 92 86 74 55 59 97 96 98 94 96 93 85 83 73 90 55 60 55 62 60 62 68 70 71 58 55 57 56 58 64 65 65 61 65 64 61
99 89 77 71 84 82 97 86 81 81 63 83 84 60 59 92 100 97 88 86 80 53 53 71 61 57 61 66 69 71 71 68 68 61 54 55 60 64 64 64 62 72 65 65

GFSNW_850_rhum_096.txt.gz
RH
87 77 82 81 82 89 85 98 94 98 99 99 98 92 96 92 69 66 65 59 61 57 66 62 66 66 76 69 61 66 60 63 92 80 61 64 65 59 46 50 54 57 42 49
80 80 88 81 92 89 89 98 97 99 97 100 100 99 98 90 71 66 64 65 57 58 65 69 68 69 69 66 59 62 53 66 78 68 57 54 62 57 52 49 54 72 48 50
80 85 84 86 98 96 94 97 88 100 100 97 77 99 99 89 70 68 63 60 53 57 68 65 74 68 67 67 65 67 51 59 64 63 68 69 73 64 55 56 65 44 46 52
99 100 99 100 99 99 98 98 90 98 100 97 90 93 99 72 76 67 60 58 55 56 69 68 73 68 62 58 62 58 50 88 83 64 61 64 63 65 58 74 54 53 47 45
100 100 100 95 100 100 98 96 96 94 96 98 97 99 93 69 73 71 64 61 59 53 55 54 68 63 59 56 53 57 56 81 67 62 54 54 64 62 64 60 55 54 48 50
100 97 98 83 74 98 98 88 88 81 99 100 94 78 66 61 70 70 66 56 54 57 61 60 61 63 59 55 53 58 58 68 72 74 61 53 51 54 58 61 60 53 48 50
87 87 95 98 92 96 77 75 74 76 98 90 70 67 63 67 68 69 72 66 54 71 66 62 58 59 60 59 62 58 58 63 68 73 58 63 50 48 50 51 55 55 55 52
80 82 84 89 83 78 71 72 68 71 89 89 79 72 65 77 79 78 82 88 77 63 60 57 60 60 58 62 66 60 53 55 68 68 63 53 51 52 50 48 52 59 53 49
81 81 77 75 77 80 72 67 60 60 65 74 86 72 81 77 79 78 89 84 70 64 56 54 70 66 65 70 72 62 54 48 52 69 68 56 46 44 47 42 43 56 56 53
77 80 84 80 76 79 63 55 56 58 78 86 79 74 74 78 76 78 80 74 66 58 56 61 62 62 62 69 70 68 60 57 64 59 64 48 42 47 44 47 43 61 62 60
83 90 90 79 82 76 68 44 49 58 83 88 82 78 79 77 80 64 78 68 61 63 66 60 60 56 61 62 61 60 56 61 63 62 67 63 49 52 44 40 65 62 64 64
85 99 89 83 78 81 74 51 60 64 66 85 82 75 74 74 75 82 77 74 74 67 67 62 63 61 66 61 56 64 64 51 52 54 46 48 54 49 46 54 60 67 65 62
89 100 100 91 83 80 76 56 58 57 78 82 79 80 79 77 78 77 68 68 62 59 55 68 66 61 55 57 56 60 59 60 54 56 50 51 57 54 55 53 62 61 62 62
100 96 90 90 89 54 55 50 56 59 62 72 79 77 77 77 75 69 65 63 59 56 62 67 66 59 66 56 56 58 52 59 53 53 53 63 62 61 58 59 63 63 64 63
92 99 100 97 85 69 45 44 49 43 44 73 81 77 76 74 68 66 64 67 60 60 64 62 60 76 71 73 72 64 59 52 50 42 40 38 46 49 56 60 61 61 64 67
100 99 98 96 88 68 50 41 40 41 50 58 82 78 76 79 77 76 72 67 60 58 70 71 82 80 74 70 63 48 58 55 51 41 46 50 49 52 58 62 64 66 68 67
100 98 100 97 97 87 72 51 54 46 41 44 80 79 74 75 73 70 68 65 61 58 68 72 72 80 85 72 64 38 48 57 54 51 49 62 58 60 61 65 68 70 66 67
98 96 94 97 95 81 66 57 53 50 50 42 83 82 73 73 70 71 64 60 61 65 79 78 69 80 76 72 52 53 47 61 61 56 56 54 54 58 66 70 69 67 71 75
94 90 71 61 62 69 58 62 56 57 61 63 74 80 79 72 76 68 64 61 65 73 67 69 73 64 72 53 47 51 48 57 60 64 64 59 58 62 66 65 67 72 74 75
84 67 56 58 58 51 64 72 60 59 70 65 69 70 78 79 88 83 75 84 67 76 66 87 74 63 49 38 35 34 39 49 58 71 78 68 62 60 62 64 69 74 74 70
70 60 60 63 58 67 67 66 74 73 85 87 84 84 83 78 74 70 80 79 80 79 73 75 71 70 60 39 31 33 36 50 52 54 56 55 50 55 65 68 70 74 66 52
70 63 63 64 68 72 76 81 79 85 71 92 86 88 79 77 72 76 87 80 85 76 84 85 76 56 45 48 44 35 36 52 56 62 54 53 62 64 65 68 69 63 57 50
67 70 73 71 79 88 88 79 82 92 88 95 97 90 79 79 80 87 80 86 82 80 87 69 58 48 46 49 47 42 40 56 59 60 62 61 65 64 64 67 63 61 56 53
94 94 96 92 96 89 79 74 80 73 78 88 84 100 82 83 84 78 84 72 75 91 91 72 45 45 40 52 48 43 47 60 58 59 59 59 66 66 64 58 58 58 56 58
99 99 98 97 73 70 63 67 70 78 80 85 80 84 78 84 88 74 83 92 94 79 66 58 43 41 46 54 52 50 52 59 59 59 56 66 67 59 55 56 56 59 62 67
100 100 99 90 86 84 98 93 82 81 88 65 64 88 89 84 80 95 91 80 73 66 82 51 46 48 55 52 50 51 53 56 57 59 69 64 56 59 53 51 54 60 64 68
99 97 94 71 68 71 70 78 75 76 77 84 81 81 66 83 94 90 76 80 69 50 44 48 48 48 56 54 55 56 57 60 70 71 60 63 56 44 43 45 52 52 51 51

GFSNW_850_rhum_099.txt.gz
RH
74 79 77 82 81 76 76 93 89 84 97 96 97 95 91 98 71 59 58 53 48 42 46 50 50 56 69 70 58 86 65 68 98 72 52 53 57 47 40 46 45 42 44 62
95 96 88 83 77 80 86 99 100 100 98 96 94 96 96 88 65 61 61 60 50 45 50 57 53 59 61 58 54 58 47 57 86 66 52 47 53 44 38 41 53 63 48 55
98 100 98 98 88 79 85 92 100 98 99 97 68 97 100 80 67 62 63 53 44 48 52 50 59 56 60 61 55 62 50 56 68 72 72 64 62 46 40 54 61 38 42 51
100 100 100 99 86 69 81 93 91 97 99 77 73 93 92 62 71 64 60 51 46 46 54 50 58 54 52 50 53 48 44 82 85 52 50 54 54 50 43 59 40 53 42 44
99 86 88 90 100 86 95 88 79 91 79 82 96 92 69 56 64 65 63 54 46 42 49 51 52 51 47 48 44 46 45 78 62 54 46 49 58 51 47 45 39 37 38 43
84 84 66 73 82 78 96 99 83 71 99 96 75 64 56 54 58 61 58 52 43 49 60 52 51 49 47 46 45 46 48 60 68 69 51 47 49 51 50 52 47 38 44 41
76 70 47 57 55 70 89 91 76 64 94 85 62 55 56 59 61 64 59 61 48 65 59 51 48 48 47 47 47 46 47 52 59 67 56 65 51 42 45 46 47 46 46 44
79 67 58 60 61 62 83 70 75 63 79 70 64 57 55 64 63 67 72 78 71 63 56 49 52 51 52 53 53 49 45 46 56 62 49 44 44 44 44 46 46 42 41 42
79 75 71 79 82 78 78 69 65 68 60 67 68 62 61 54 61 62 73 78 73 66 48 47 58 53 56 57 60 50 46 42 46 59 64 54 40 40 39 36 41 43 46 40
75 77 83 84 80 76 73 69 58 68 59 77 76 56 52 70 64 60 65 64 62 60 48 53 54 49 53 54 55 57 53 50 57 50 56 40 37 40 37 44 49 47 46 48
80 76 78 88 76 70 57 47 50 68 69 84 73 76 74 69 68 54 67 64 59 55 58 54 48 44 46 50 48 50 48 52 55 49 58 58 39 43 38 42 49 52 53 57
80 81 80 84 81 79 79 54 60 61 72 78 70 74 74 69 69 78 74 65 62 59 58 51 48 47 48 45 42 52 56 42 44 44 42 40 42 42 46 47 52 55 57 60
74 84 86 94 87 80 76 70 60 66 79 77 76 81 73 71 69 72 67 63 67 64 54 55 53 53 45 44 40 42 44 46 48 49 33 41 45 50 53 56 54 60 60 65
77 83 94 90 88 58 58 58 56 65 71 65 76 76 75 74 73 72 67 66 64 60 64 53 52 51 52 41 48 47 39 49 43 43 38 47 49 49 51 59 61 64 65 66
86 85 83 90 97 78 46 48 52 46 52 67 74 76 76 75 74 69 66 67 77 71 61 54 50 56 58 54 59 50 41 40 46 35 29 32 32 45 53 60 59 61 62 61
88 90 100 95 90 81 63 52 43 44 51 69 83 78 76 75 75 75 74 70 65 71 64 57 63 72 65 58 48 34 34 38 36 30 39 42 44 48 57 61 64 63 66 70
99 90 91 91 92 89 87 52 49 43 39 51 85 79 76 75 74 72 72 67 63 67 70 66 61 69 76 64 54 29 37 44 46 51 45 59 53 57 58 66 69 64 66 67
98 99 99 97 98 98 84 78 67 46 42 40 87 84 72 74 70 68 64 69 68 70 68 73 63 71 69 70 45 37 39 46 53 57 56 52 52 52 60 69 67 68 68 66
100 100 93 74 69 68 68 61 53 49 50 73 72 81 82 72 79 76 70 68 64 74 64 63 66 58 75 56 41 38 48 51 52 62 64 56 56 60 64 67 70 72 74 74
100 87 67 59 60 56 47 59 64 63 64 64 69 66 71 77 73 71 66 72 58 81 60 77 70 63 49 38 42 38 42 45 58 72 79 65 67 68 68 66 70 66 76 72
86 64 59 58 55 59 64 77 77 75 84 82 73 67 74 80 66 61 68 75 73 79 68 68 68 60 51 42 40 35 31 38 46 52 56 56 59 61 66 64 65 67 68 64
74 58 62 63 71 80 87 82 76 82 71 83 78 77 75 77 68 62 77 79 79 79 73 73 74 49 41 34 39 46 33 33 47 57 58 58 59 54 55 62 64 65 64 58
74 69 69 72 83 91 87 82 79 83 79 92 89 82 80 78 84 70 73 89 81 69 78 70 59 47 36 42 44 52 40 40 55 59 58 56 53 56 60 60 61 60 55 53
78 86 98 98 96 89 78 65 83 82 89 94 82 89 75 74 80 67 87 64 67 82 83 74 50 43 39 38 46 45 51 54 56 60 56 57 57 60 60 60 57 51 51 56
96 99 96 96 79 84 77 75 66 67 86 88 85 85 71 80 85 69 78 88 89 70 68 63 51 37 40 46 49 48 47 58 62 59 58 55 60 62 59 53 50 49 53 57
99 100 99 94 93 95 91 95 96 75 91 70 68 86 86 86 76 85 86 75 73 69 82 55 40 40 44 52 49 46 45 56 59 58 56 56 65 60 52 52 47 46 50 56
100 99 98 89 85 88 84 87 81 73 81 90 90 86 75 79 85 80 67 79 76 58 42 39 42 42 49 52 49 48 51 58 58 58 58 67 59 57 52 43 41 45 42 38

GFSNW_850_rhum_102.txt.gz
RH
100 89 72 66 64 65 71 83 90 99 82 92 97 100 97 95 66 57 57 54 44 42 43 55 61 71 73 66 80 96 77 93 97 68 56 52 60 52 46 78 62 68 86 92
99 99 89 71 73 76 88 97 98 95 97 87 90 98 84 85 65 59 61 56 46 45 55 64 57 58 62 54 57 65 55 72 94 70 61 53 56 44 45 59 78 68 86 85
95 99 100 100 72 72 88 97 99 91 97 95 65 91 88 71 67 59 57 51 41 47 49 48 57 58 59 60 53 58 61 66 82 90 79 68 69 51 47 66 78 64 67 64
95 96 98 100 87 71 87 92 89 84 94 79 74 81 76 54 66 58 56 49 46 48 52 53 59 52 53 52 47 49 55 83 83 54 53 57 58 55 50 58 50 70 58 57
96 96 92 92 96 70 89 83 74 76 72 80 74 80 66 55 61 67 57 54 46 52 62 58 56 49 52 55 41 45 48 81 62 56 48 52 61 56 56 56 44 47 49 54
76 69 83 92 84 67 89 83 72 65 84 81 66 59 59 58 60 60 56 56 54 64 65 50 47 45 45 48 55 52 54 72 81 76 59 57 68 58 55 53 56 46 59 52
71 55 54 60 69 88 86 83 73 66 88 77 58 52 56 60 66 67 61 66 58 63 56 52 45 45 45 47 51 46 55 57 75 86 68 79 58 43 46 50 50 49 52 46
60 52 50 56 66 82 92 76 76 65 77 67 62 52 61 58 60 68 69 76 69 63 59 57 55 59 55 54 54 54 52 59 68 88 74 46 49 48 47 50 51 42 52 54
56 58 76 66 79 79 71 66 67 68 65 73 61 54 55 56 61 67 68 67 58 56 61 54 62 72 57 58 58 49 50 48 63 79 78 63 50 43 37 38 56 48 43 50
68 56 74 80 76 70 70 71 68 65 59 72 69 61 64 62 61 72 64 64 61 57 68 67 72 61 51 63 57 56 61 58 68 71 74 57 45 43 38 52 61 48 43 45
78 68 72 73 72 87 78 62 57 69 68 71 70 67 73 67 66 67 68 68 64 65 72 68 58 56 57 59 48 52 56 62 73 62 68 75 42 43 45 51 49 49 50 51
89 80 82 80 80 84 80 75 65 65 73 70 65 67 69 70 71 75 68 67 67 72 79 68 58 61 54 50 56 53 67 52 62 54 63 43 41 44 41 49 52 54 56 57
86 80 72 82 82 78 64 70 65 68 73 69 70 70 67 68 67 69 75 62 64 63 56 67 73 65 56 60 56 41 47 45 61 53 43 48 43 44 46 46 53 56 58 57
85 84 74 72 79 56 49 57 58 68 73 75 74 71 68 65 65 68 70 71 63 61 57 62 74 70 50 56 56 59 46 53 56 54 45 44 42 44 45 47 55 56 60 56
86 83 73 75 74 66 63 46 49 48 56 79 75 75 74 71 68 69 70 68 72 71 69 74 74 61 65 61 71 76 49 61 60 61 39 40 38 35 46 47 47 52 56 58
91 95 83 78 78 74 67 58 44 43 53 78 96 76 75 74 74 72 71 72 74 71 72 68 61 68 66 83 73 44 36 37 36 36 35 36 37 40 42 45 48 55 56 58
95 100 100 99 84 71 76 61 52 54 41 51 87 89 75 75 75 74 74 71 69 68 72 71 66 69 64 86 85 40 33 34 36 38 39 45 43 44 48 52 58 62 64 62
97 100 100 98 98 99 87 77 77 71 41 42 96 94 70 75 75 74 68 70 68 68 71 71 73 73 75 93 64 43 32 32 41 44 44 45 41 43 50 58 59 62 62 61
98 100 100 98 88 77 75 73 70 53 42 76 78 94 93 74 75 73 64 67 84 72 84 80 73 85 90 70 54 45 42 37 37 47 52 53 51 48 51 56 61 61 63 63
100 100 86 68 60 62 59 61 62 66 67 59 88 63 89 72 75 75 71 71 84 93 83 70 88 82 53 36 41 37 38 38 42 56 65 62 60 58 55 54 55 57 62 60
99 83 69 62 54 58 67 82 85 82 94 80 76 66 87 75 83 82 67 91 90 96 87 85 92 89 68 41 43 33 35 35 38 37 38 45 47 54 58 63 64 63 58 59
88 66 61 60 60 81 92 92 85 89 88 80 83 75 72 67 70 74 79 92 91 94 78 88 94 69 42 39 34 45 42 32 35 45 45 48 53 55 56 58 60 55 61 62
74 64 65 70 85 99 98 91 94 94 76 84 84 94 70 69 72 77 86 96 95 70 92 90 79 48 39 33 34 44 45 39 36 50 55 56 59 60 59 52 56 61 60 58
80 86 99 96 95 94 90 90 96 84 84 86 82 83 80 76 88 83 99 81 76 94 96 83 65 43 41 37 34 45 49 47 50 52 56 57 58 54 55 59 56 53 52 48
84 94 94 92 84 87 79 80 62 73 77 83 83 86 76 92 94 86 89 91 97 87 82 76 56 40 39 41 45 48 56 61 59 60 58 56 55 54 56 57 55 49 47 47
99 100 98 93 93 99 92 71 84 68 84 74 72 94 96 93 91 94 94 91 88 74 88 53 47 43 42 47 49 53 58 63 62 62 57 56 54 56 58 55 50 48 45 44
100 99 98 87 83 90 86 78 67 68 82 96 93 96 80 89 97 97 85 89 80 69 36 36 34 40 45 53 55 55 58 64 64 64 63 56 58 63 57 53 49 39 40 40

GFSNW_850_rhum_108.txt.gz
RH
70 70 81 63 62 64 59 60 87 63 60 81 87 94 93 83 78 65 66 68 48 45 61 82 97 98 84 72 77 92 88 86 97 76 57 60 66 73 65 80 86 85 96 99
66 63 72 72 54 67 61 66 61 64 66 93 95 80 78 80 76 71 70 63 53 47 61 75 78 76 63 69 82 76 82 83 92 67 56 59 74 63 58 66 73 91 92 100
66 54 50 49 58 71 76 72 85 60 72 92 84 84 81 72 63 71 63 66 51 52 65 60 63 66 59 59 61 59 62 73 80 88 76 72 77 70 63 67 87 92 97 97
80 44 48 42 49 65 70 78 86 88 98 85 85 81 81 74 78 65 61 67 74 60 75 65 72 62 60 53 53 55 56 78 80 61 61 59 62 72 66 74 72 71 86 80
68 48 43 40 45 63 80 81 78 82 79 76 84 78 68 74 72 66 71 76 71 73 80 77 76 70 62 63 58 55 65 77 71 62 59 62 60 64 67 68 69 78 76 70
45 50 45 44 39 58 76 83 82 69 81 86 86 72 66 70 69 65 68 70 67 68 68 68 63 62 57 55 57 64 63 78 83 67 67 64 57 60 63 62 61 65 78 63
33 35 50 42 42 60 66 68 82 79 85 88 84 73 70 71 74 72 68 66 60 61 56 52 53 52 53 55 57 59 67 71 85 83 68 66 49 49 49 58 56 56 59 60
32 37 59 41 46 58 69 68 64 73 86 81 71 70 68 64 65 72 73 63 62 57 58 66 65 67 60 55 58 56 63 73 77 85 87 54 50 50 54 52 56 57 67 72
42 45 48 51 47 53 58 63 66 64 73 77 72 74 67 74 76 78 68 60 60 59 73 68 66 74 62 65 63 53 61 67 73 84 80 65 42 47 42 36 60 53 66 75
56 49 62 63 63 59 58 52 53 63 71 66 65 74 78 70 75 86 76 65 63 62 81 77 80 70 57 66 67 60 70 71 76 80 86 68 50 45 39 48 43 54 57 65
67 71 73 73 66 65 65 52 48 52 67 69 66 65 68 70 76 86 70 70 64 74 74 78 77 73 66 66 59 58 65 77 82 80 79 68 47 47 50 43 53 47 50 53
68 73 73 72 66 61 71 67 61 62 67 71 70 67 60 58 67 72 76 78 77 80 90 85 81 71 76 68 66 54 71 63 65 71 69 48 44 40 35 44 46 49 45 48
75 72 77 82 78 76 68 66 70 61 66 66 68 66 62 60 59 61 67 74 71 75 72 80 86 80 73 75 77 58 54 57 67 57 49 53 41 38 38 40 44 45 45 46
75 78 77 79 79 67 55 58 56 62 71 83 69 63 66 64 64 63 62 60 62 64 66 75 86 82 63 75 64 68 53 58 63 69 60 50 45 42 38 41 46 47 50 49
74 81 83 82 83 81 71 52 46 53 56 68 65 64 64 69 70 70 70 69 69 68 75 84 82 75 79 80 84 93 59 63 57 58 44 43 36 30 38 41 42 48 49 52
79 89 89 86 88 88 78 57 45 43 49 52 87 67 71 73 76 78 80 80 79 72 74 79 75 70 66 87 90 60 50 46 43 42 36 35 33 34 35 41 41 42 49 48
85 93 92 91 92 87 80 69 54 73 73 44 60 70 75 75 78 79 78 79 77 73 73 84 79 70 68 89 78 46 37 35 35 37 43 44 37 35 34 34 41 43 45 50
95 98 98 96 94 92 90 80 77 84 75 54 84 83 68 74 78 78 78 75 76 75 72 82 80 79 81 95 66 48 46 48 49 46 40 40 40 37 39 36 43 48 49 51
97 99 100 99 99 98 88 83 86 89 74 54 78 81 74 74 81 82 77 76 87 82 89 86 79 87 92 68 61 53 46 44 38 40 41 38 45 41 38 38 44 48 47 51
95 100 98 99 87 86 79 69 71 74 69 66 93 68 92 74 83 82 81 81 87 92 84 78 95 91 67 54 45 42 44 43 48 50 44 44 49 46 42 40 39 38 41 48
100 98 96 86 74 64 63 78 90 82 99 76 73 68 88 74 86 85 77 91 93 92 77 88 93 92 70 34 25 21 25 34 36 44 43 41 37 38 40 43 44 46 48 53
97 86 83 76 61 73 93 96 91 99 89 84 87 80 60 74 69 76 84 90 93 94 82 91 93 71 33 36 26 23 26 32 29 30 41 47 39 40 42 46 46 47 51 57
97 74 63 69 83 97 100 86 98 98 82 91 86 96 62 77 74 85 87 95 96 79 98 85 78 45 28 28 26 23 27 32 33 37 51 52 44 45 44 46 49 54 59 62
96 76 94 93 97 94 88 81 84 62 71 82 71 87 74 76 91 90 85 79 86 98 100 81 68 28 30 24 26 33 32 34 41 42 50 51 48 42 42 49 54 58 62 66
98 99 97 98 79 80 77 66 83 85 75 70 76 87 77 96 93 93 91 97 99 91 76 72 30 31 34 32 31 31 32 39 42 52 51 55 53 48 48 55 60 64 68 67
100 99 99 97 96 97 99 91 82 86 79 62 64 98 98 92 92 100 95 91 89 70 89 33 32 38 40 38 37 33 30 35 41 61 61 62 62 60 62 66 68 67 67 68
100 99 91 81 83 83 91 87 84 79 74 91 92 94 80 90 100 97 89 89 78 45 28 32 33 32 39 42 43 39 35 33 39 49 72 72 72 72 73 69 67 68 66 59

GFSNW_850_rhum_111.txt.gz
RH
79 56 39 36 36 29 30 48 84 56 46 68 89 97 90 84 80 70 71 70 46 49 72 97 96 99 86 71 77 88 86 88 98 74 58 63 74 86 74 97 87 88 97 99
89 69 37 35 27 33 36 46 54 54 49 92 97 81 76 78 76 74 71 65 58 50 64 76 87 83 63 70 84 83 81 84 92 62 56 60 72 65 61 72 79 94 92 98
89 70 52 34 34 32 35 51 86 56 62 85 84 92 82 76 64 70 67 69 57 60 70 65 66 67 58 65 76 72 62 76 77 88 76 70 75 72 68 72 89 84 93 91
51 52 55 39 37 34 37 66 88 90 97 86 86 82 80 81 84 66 64 64 77 72 71 70 76 68 64 55 55 64 58 74 80 62 62 62 62 73 72 78 73 68 86 84
44 44 47 37 43 45 37 68 74 82 82 78 82 77 73 80 80 77 74 75 74 76 75 75 76 78 66 64 60 57 68 82 73 55 60 65 57 65 66 71 78 84 80 72
45 37 51 36 45 54 55 67 70 66 85 83 80 79 76 77 77 64 71 76 74 70 70 69 66 67 66 66 62 67 66 79 80 67 67 60 52 56 62 62 61 75 79 66
40 36 48 45 54 54 54 62 68 64 81 84 81 74 71 74 75 83 70 67 66 61 58 57 59 61 60 59 58 64 68 75 86 86 67 52 40 52 50 60 56 57 59 65
29 35 42 58 67 66 57 52 59 65 84 76 73 72 69 66 60 68 73 64 63 63 62 67 65 66 57 54 57 61 67 75 74 84 86 53 45 55 57 59 59 56 61 66
38 42 46 59 63 68 62 60 59 59 70 81 63 71 69 77 77 78 62 59 60 60 71 71 68 70 65 61 60 55 66 71 74 83 77 51 36 46 45 39 63 55 60 73
48 44 50 59 64 61 61 56 51 62 63 64 68 73 72 68 80 88 79 69 63 62 82 80 84 76 60 68 70 63 72 75 77 79 90 68 48 46 38 52 42 48 54 58
60 54 58 58 67 71 67 60 52 53 62 61 62 63 66 75 75 86 67 70 68 79 76 79 81 77 71 75 62 59 63 75 82 82 84 67 49 47 48 43 48 47 54 50
69 69 66 69 70 72 74 70 68 60 61 64 65 63 63 64 60 64 73 65 75 79 93 89 87 74 79 71 74 57 68 66 65 73 70 48 44 46 37 39 46 47 50 51
68 71 74 73 70 73 72 65 67 70 65 65 67 61 64 64 61 68 72 76 70 72 65 79 88 84 79 77 80 62 55 58 70 60 47 55 42 40 40 38 36 39 43 43
54 73 76 76 82 78 64 58 63 64 67 84 68 61 61 60 62 66 71 76 75 71 70 76 87 83 62 79 64 67 52 61 69 73 62 46 38 35 35 36 37 41 42 44
39 73 80 82 84 76 74 70 57 51 62 63 52 58 61 64 64 64 67 69 72 73 77 88 89 79 83 85 87 95 66 66 67 60 40 37 35 34 33 37 39 38 41 43
62 76 84 86 86 82 86 74 62 47 52 54 81 61 69 69 76 74 73 76 79 79 79 80 77 72 71 90 92 63 52 47 40 43 35 37 36 36 35 35 35 40 42 43
82 81 88 92 91 89 86 72 55 70 76 58 57 63 78 83 83 83 82 85 85 82 74 87 81 74 76 91 93 49 40 40 40 40 43 48 42 40 35 36 32 35 41 43
92 95 99 98 95 93 91 85 86 79 82 69 83 80 70 81 82 82 84 81 83 80 78 84 86 81 86 95 72 58 52 50 49 41 44 46 47 46 41 38 38 35 42 43
100 100 100 96 97 99 93 86 90 91 82 54 78 82 73 80 85 85 85 81 91 86 92 89 86 90 96 76 65 53 46 52 49 43 44 45 43 41 45 41 42 41 40 44
100 100 98 99 97 95 88 82 80 83 83 82 90 65 92 79 89 90 84 85 89 94 87 86 99 93 66 58 50 38 30 31 37 52 50 39 46 46 39 40 41 39 37 37
100 99 100 96 91 90 75 71 87 81 98 80 83 69 91 71 88 88 77 92 93 94 79 91 94 95 75 35 29 25 22 23 28 38 41 43 47 47 44 41 41 43 40 39
98 98 97 90 72 69 90 97 92 98 87 88 92 81 66 72 70 78 93 90 93 94 83 96 98 75 37 29 25 21 22 24 26 31 34 44 45 39 43 43 44 43 42 44
100 100 100 97 95 99 100 99 100 100 90 90 90 94 62 78 75 85 89 95 95 81 97 89 80 48 29 27 24 21 22 24 26 26 34 45 53 57 53 45 44 46 49 52
100 99 98 97 98 96 89 80 83 68 76 84 73 85 76 76 92 90 87 80 87 100 100 86 69 36 27 32 34 35 34 31 29 28 33 44 52 53 52 50 48 48 51 57
100 100 97 98 78 78 77 61 66 80 81 74 73 84 80 96 97 92 90 100 98 94 81 75 35 28 36 38 42 41 38 35 30 28 33 42 52 58 57 52 49 53 58 63
100 100 99 98 90 98 96 80 92 90 85 61 64 92 92 88 92 100 93 88 87 74 89 34 28 32 37 42 44 42 41 41 39 37 36 44 54 59 63 64 62 66 70 72
99 99 98 82 84 79 91 82 89 88 72 93 91 92 78 91 100 97 87 85 78 46 29 28 29 29 32 42 43 43 41 42 42 42 40 43 56 69 70 71 72 76 79 80